GEFSSE_prec_meanprecacc_006.txt.gz
Total_Precipitation_Accumulation
0.00 0.00 0.01 0.03 0.05 0.06 0.12 0.19 0.16 0.09 0.11 0.10 0.03 0.01 0.03 0.05 0.06 0.04 0.03 0.01 0.01 0.01 0.01 0.01 0.04 0.07 0.08 0.06 0.06 0.06 0.04 0.02 0.01 0.01 0.02 0.05 0.08 0.07 0.07 0.08 0.06 0.09 0.03
0.00 0.00 0.01 0.03 0.05 0.05 0.08 0.13 0.18 0.14 0.18 0.12 0.02 0.02 0.03 0.04 0.03 0.02 0.02 0.01 0.01 0.01 0.01 0.02 0.07 0.09 0.08 0.09 0.07 0.06 0.04 0.03 0.01 0.02 0.04 0.04 0.06 0.06 0.05 0.09 0.11 0.12 0.06
0.00 0.00 0.01 0.05 0.05 0.06 0.09 0.10 0.16 0.18 0.24 0.17 0.07 0.04 0.04 0.04 0.05 0.05 0.03 0.04 0.05 0.03 0.02 0.02 0.11 0.12 0.08 0.09 0.08 0.06 0.04 0.03 0.02 0.03 0.05 0.06 0.06 0.07 0.04 0.09 0.18 0.09 0.06
0.00 0.00 0.02 0.07 0.05 0.06 0.09 0.14 0.22 0.20 0.29 0.27 0.11 0.04 0.02 0.04 0.10 0.06 0.08 0.19 0.08 0.01 0.00 0.02 0.09 0.11 0.09 0.09 0.08 0.05 0.06 0.05 0.05 0.03 0.03 0.07 0.11 0.15 0.14 0.10 0.13 0.09 0.07
0.00 0.00 0.04 0.10 0.06 0.06 0.08 0.16 0.23 0.24 0.28 0.24 0.09 0.01 0.01 0.08 0.15 0.17 0.20 0.23 0.05 0.01 0.00 0.01 0.05 0.07 0.08 0.08 0.06 0.02 0.02 0.03 0.05 0.06 0.07 0.10 0.14 0.17 0.17 0.12 0.11 0.08 0.08
0.00 0.01 0.05 0.11 0.08 0.06 0.07 0.14 0.21 0.24 0.25 0.23 0.08 0.01 0.03 0.10 0.14 0.15 0.20 0.11 0.03 0.01 0.00 0.00 0.02 0.04 0.05 0.07 0.08 0.04 0.02 0.01 0.01 0.05 0.13 0.14 0.13 0.15 0.17 0.14 0.12 0.13 0.06
0.00 0.01 0.04 0.08 0.07 0.08 0.09 0.18 0.22 0.21 0.22 0.21 0.08 0.02 0.03 0.07 0.09 0.12 0.15 0.05 0.02 0.00 0.00 0.00 0.02 0.03 0.05 0.07 0.06 0.04 0.01 0.01 0.00 0.01 0.04 0.10 0.11 0.10 0.10 0.11 0.13 0.13 0.08
0.00 0.01 0.02 0.04 0.08 0.12 0.14 0.19 0.20 0.20 0.19 0.19 0.09 0.03 0.04 0.06 0.07 0.12 0.12 0.03 0.01 0.00 0.00 0.00 0.02 0.04 0.05 0.05 0.05 0.05 0.03 0.00 0.00 0.00 0.01 0.03 0.07 0.08 0.07 0.09 0.14 0.12 0.08
0.00 0.01 0.02 0.04 0.07 0.14 0.20 0.21 0.22 0.20 0.18 0.16 0.10 0.06 0.06 0.06 0.06 0.09 0.07 0.01 0.00 0.00 0.00 0.00 0.01 0.03 0.03 0.05 0.05 0.05 0.04 0.01 0.00 0.00 0.00 0.01 0.02 0.02 0.03 0.10 0.16 0.11 0.06
0.00 0.00 0.01 0.03 0.06 0.09 0.11 0.15 0.16 0.14 0.15 0.18 0.12 0.09 0.08 0.07 0.04 0.05 0.02 0.00 0.00 0.00 0.00 0.01 0.02 0.01 0.01 0.04 0.02 0.02 0.00 0.00 0.00 0.00 0.01 0.02 0.01 0.00 0.00 0.02 0.03 0.03 0.03
0.00 0.00 0.00 0.00 0.01 0.02 0.03 0.05 0.08 0.08 0.10 0.14 0.13 0.09 0.08 0.08 0.04 0.03 0.02 0.00 0.00 0.00 0.01 0.02 0.03 0.02 0.01 0.01 0.00 0.00 0.00 0.00 0.00 0.01 0.03 0.04 0.02 0.00 0.00 0.00 0.00 0.00 0.01
0.00 0.00 0.00 0.00 0.00 0.01 0.01 0.03 0.06 0.03 0.04 0.06 0.08 0.07 0.04 0.04 0.05 0.04 0.03 0.01 0.00 0.01 0.01 0.02 0.03 0.01 0.00 0.00 0.00 0.00 0.00 0.00 0.00 0.01 0.04 0.07 0.05 0.02 0.00 0.00 0.00 0.00 0.00
0.00 0.00 0.00 0.00 0.00 0.00 0.01 0.03 0.05 0.04 0.03 0.04 0.04 0.02 0.01 0.00 0.01 0.02 0.04 0.03 0.01 0.02 0.00 0.00 0.00 0.00 0.00 0.00 0.00 0.00 0.00 0.00 0.00 0.03 0.06 0.08 0.09 0.08 0.03 0.01 0.01 0.01 0.01
0.00 0.00 0.00 0.00 0.00 0.00 0.00 0.00 0.01 0.02 0.03 0.02 0.01 0.00 0.00 0.00 0.00 0.01 0.02 0.02 0.01 0.00 0.00 0.00 0.00 0.00 0.00 0.00 0.00 0.00 0.00 0.00 0.01 0.07 0.11 0.11 0.14 0.11 0.06 0.03 0.02 0.02 0.02
0.00 0.00 0.00 0.00 0.00 0.00 0.00 0.00 0.00 0.00 0.02 0.05 0.04 0.01 0.00 0.00 0.00 0.01 0.01 0.02 0.01 0.00 0.00 0.00 0.00 0.00 0.00 0.00 0.00 0.00 0.00 0.00 0.01 0.08 0.17 0.20 0.27 0.24 0.19 0.11 0.06 0.05 0.06
0.00 0.00 0.00 0.00 0.00 0.00 0.00 0.00 0.00 0.00 0.02 0.05 0.05 0.01 0.00 0.00 0.00 0.00 0.02 0.02 0.01 0.00 0.00 0.00 0.00 0.00 0.00 0.00 0.00 0.00 0.00 0.00 0.00 0.02 0.10 0.20 0.26 0.20 0.22 0.21 0.14 0.10 0.07
0.00 0.00 0.01 0.01 0.00 0.00 0.00 0.00 0.00 0.00 0.00 0.03 0.05 0.01 0.01 0.00 0.00 0.00 0.02 0.02 0.01 0.00 0.00 0.00 0.00 0.00 0.00 0.00 0.00 0.00 0.00 0.00 0.00 0.00 0.00 0.02 0.05 0.05 0.06 0.11 0.13 0.11 0.08
0.00 0.02 0.05 0.05 0.04 0.00 0.00 0.00 0.00 0.00 0.00 0.02 0.04 0.02 0.01 0.00 0.00 0.00 0.00 0.02 0.02 0.00 0.00 0.01 0.00 0.01 0.00 0.00 0.00 0.00 0.00 0.00 0.00 0.00 0.00 0.00 0.00 0.00 0.01 0.01 0.03 0.06 0.12
0.00 0.01 0.05 0.08 0.09 0.05 0.04 0.04 0.02 0.01 0.01 0.02 0.04 0.05 0.04 0.01 0.02 0.01 0.01 0.01 0.02 0.02 0.03 0.03 0.03 0.01 0.01 0.01 0.00 0.00 0.00 0.00 0.00 0.00 0.00 0.00 0.00 0.00 0.00 0.00 0.00 0.00 0.01
0.00 0.00 0.02 0.07 0.17 0.22 0.22 0.16 0.13 0.10 0.07 0.06 0.07 0.09 0.05 0.07 0.11 0.05 0.02 0.02 0.02 0.07 0.11 0.09 0.08 0.05 0.03 0.02 0.00 0.00 0.00 0.00 0.00 0.00 0.00 0.00 0.00 0.00 0.00 0.00 0.00 0.00 0.00
0.00 0.00 0.00 0.02 0.07 0.12 0.13 0.09 0.12 0.16 0.17 0.20 0.21 0.19 0.13 0.10 0.14 0.11 0.03 0.02 0.02 0.05 0.12 0.17 0.16 0.14 0.05 0.01 0.00 0.00 0.00 0.00 0.00 0.00 0.00 0.00 0.00 0.00 0.00 0.00 0.00 0.00 0.00
0.00 0.00 0.00 0.00 0.01 0.01 0.03 0.06 0.08 0.10 0.09 0.12 0.18 0.24 0.25 0.14 0.10 0.10 0.08 0.05 0.04 0.06 0.13 0.13 0.10 0.15 0.08 0.02 0.00 0.01 0.01 0.00 0.00 0.00 0.00 0.00 0.00 0.00 0.00 0.00 0.00 0.00 0.00
0.00 0.00 0.00 0.00 0.01 0.02 0.05 0.05 0.04 0.05 0.05 0.04 0.08 0.16 0.23 0.24 0.24 0.20 0.14 0.12 0.10 0.05 0.08 0.09 0.06 0.11 0.08 0.02 0.00 0.01 0.02 0.02 0.00 0.00 0.00 0.00 0.00 0.00 0.00 0.00 0.00 0.00 0.00
0.00 0.00 0.00 0.00 0.01 0.03 0.06 0.08 0.07 0.07 0.08 0.08 0.09 0.09 0.10 0.17 0.24 0.27 0.19 0.13 0.12 0.07 0.05 0.07 0.05 0.05 0.06 0.02 0.00 0.00 0.00 0.01 0.00 0.00 0.00 0.00 0.00 0.00 0.00 0.00 0.00 0.00 0.00
0.00 0.00 0.00 0.00 0.01 0.02 0.05 0.08 0.06 0.06 0.08 0.06 0.04 0.02 0.03 0.06 0.07 0.10 0.11 0.11 0.10 0.08 0.05 0.06 0.06 0.08 0.05 0.03 0.01 0.00 0.00 0.00 0.00 0.00 0.01 0.00 0.00 0.00 0.00 0.00 0.00 0.00 0.00
0.00 0.00 0.00 0.00 0.00 0.01 0.02 0.04 0.06 0.06 0.05 0.03 0.01 0.01 0.02 0.02 0.02 0.02 0.04 0.11 0.15 0.14 0.12 0.10 0.08 0.11 0.09 0.07 0.04 0.01 0.01 0.00 0.00 0.00 0.01 0.01 0.01 0.00 0.00 0.00 0.00 0.00 0.00

GEFSSE_prec_meanprecacc_012.txt.gz
Total_Precipitation_Accumulation
0.00 0.00 0.02 0.05 0.06 0.07 0.13 0.20 0.18 0.11 0.15 0.14 0.07 0.03 0.04 0.06 0.09 0.07 0.05 0.03 0.02 0.02 0.02 0.03 0.06 0.09 0.08 0.07 0.07 0.08 0.06 0.07 0.06 0.06 0.12 0.17 0.15 0.10 0.09 0.10 0.10 0.15 0.05
0.00 0.00 0.02 0.06 0.08 0.07 0.10 0.14 0.20 0.17 0.23 0.18 0.10 0.04 0.04 0.06 0.07 0.03 0.02 0.01 0.01 0.01 0.02 0.04 0.09 0.10 0.09 0.10 0.08 0.08 0.06 0.05 0.03 0.05 0.12 0.15 0.13 0.09 0.07 0.11 0.17 0.20 0.09
0.00 0.00 0.01 0.07 0.08 0.07 0.11 0.15 0.21 0.23 0.32 0.25 0.17 0.09 0.07 0.07 0.09 0.06 0.04 0.04 0.05 0.03 0.02 0.04 0.12 0.13 0.09 0.10 0.10 0.09 0.08 0.05 0.03 0.04 0.10 0.27 0.23 0.10 0.07 0.17 0.28 0.16 0.11
0.00 0.00 0.03 0.10 0.07 0.07 0.11 0.18 0.28 0.29 0.38 0.36 0.18 0.08 0.04 0.08 0.15 0.12 0.11 0.21 0.09 0.01 0.00 0.03 0.10 0.12 0.10 0.11 0.13 0.09 0.08 0.07 0.06 0.05 0.15 0.29 0.32 0.21 0.20 0.26 0.29 0.18 0.14
0.00 0.01 0.08 0.15 0.11 0.09 0.11 0.20 0.30 0.34 0.40 0.34 0.14 0.03 0.02 0.09 0.18 0.21 0.23 0.25 0.05 0.01 0.00 0.01 0.06 0.09 0.09 0.09 0.07 0.04 0.04 0.05 0.10 0.17 0.27 0.34 0.34 0.26 0.25 0.27 0.26 0.16 0.14
0.00 0.02 0.07 0.15 0.14 0.12 0.11 0.21 0.28 0.34 0.40 0.33 0.12 0.03 0.04 0.12 0.16 0.16 0.23 0.12 0.03 0.01 0.00 0.00 0.03 0.05 0.06 0.08 0.09 0.05 0.03 0.03 0.09 0.17 0.30 0.35 0.30 0.22 0.25 0.26 0.25 0.22 0.12
0.00 0.01 0.04 0.09 0.12 0.13 0.13 0.26 0.31 0.32 0.35 0.29 0.11 0.04 0.04 0.07 0.09 0.12 0.17 0.05 0.02 0.00 0.00 0.00 0.03 0.04 0.06 0.07 0.07 0.04 0.01 0.02 0.03 0.06 0.17 0.30 0.24 0.19 0.20 0.24 0.27 0.26 0.15
0.00 0.01 0.02 0.05 0.10 0.14 0.16 0.26 0.29 0.29 0.28 0.24 0.11 0.05 0.05 0.06 0.07 0.13 0.13 0.03 0.01 0.00 0.00 0.00 0.03 0.06 0.06 0.05 0.05 0.05 0.03 0.00 0.00 0.02 0.07 0.15 0.18 0.19 0.15 0.20 0.28 0.23 0.17
0.00 0.01 0.02 0.04 0.07 0.15 0.21 0.25 0.26 0.25 0.26 0.22 0.13 0.07 0.06 0.07 0.06 0.09 0.07 0.01 0.00 0.00 0.00 0.00 0.03 0.04 0.03 0.05 0.05 0.05 0.04 0.01 0.00 0.01 0.03 0.05 0.05 0.07 0.08 0.16 0.26 0.23 0.16
0.00 0.00 0.01 0.03 0.06 0.10 0.11 0.16 0.18 0.18 0.21 0.24 0.15 0.10 0.08 0.07 0.04 0.05 0.02 0.00 0.00 0.00 0.00 0.01 0.02 0.01 0.01 0.04 0.03 0.02 0.00 0.00 0.01 0.02 0.06 0.04 0.01 0.01 0.01 0.04 0.07 0.06 0.06
0.00 0.00 0.00 0.01 0.01 0.03 0.03 0.05 0.09 0.10 0.13 0.17 0.14 0.09 0.09 0.10 0.04 0.03 0.02 0.00 0.00 0.00 0.01 0.02 0.03 0.02 0.01 0.01 0.00 0.00 0.00 0.01 0.01 0.03 0.08 0.05 0.02 0.00 0.00 0.00 0.01 0.00 0.01
0.00 0.00 0.00 0.00 0.00 0.01 0.03 0.07 0.16 0.09 0.05 0.07 0.09 0.08 0.07 0.06 0.07 0.04 0.03 0.01 0.00 0.01 0.01 0.02 0.03 0.01 0.00 0.00 0.00 0.00 0.00 0.00 0.01 0.02 0.05 0.07 0.06 0.02 0.01 0.00 0.00 0.00 0.00
0.00 0.00 0.00 0.00 0.00 0.01 0.05 0.10 0.16 0.19 0.12 0.07 0.05 0.02 0.06 0.02 0.01 0.02 0.04 0.03 0.02 0.02 0.00 0.00 0.00 0.00 0.00 0.00 0.00 0.00 0.00 0.00 0.02 0.05 0.06 0.09 0.11 0.10 0.05 0.02 0.02 0.01 0.01
0.00 0.00 0.00 0.00 0.00 0.00 0.00 0.01 0.04 0.08 0.12 0.09 0.02 0.01 0.01 0.00 0.00 0.01 0.03 0.03 0.02 0.00 0.00 0.00 0.00 0.00 0.00 0.00 0.00 0.00 0.00 0.01 0.06 0.12 0.13 0.12 0.16 0.12 0.08 0.04 0.03 0.03 0.03
0.00 0.00 0.00 0.00 0.00 0.00 0.00 0.00 0.00 0.01 0.06 0.09 0.07 0.01 0.00 0.00 0.00 0.01 0.01 0.02 0.01 0.00 0.00 0.00 0.00 0.00 0.00 0.00 0.00 0.00 0.00 0.01 0.06 0.12 0.22 0.26 0.33 0.29 0.23 0.14 0.08 0.06 0.08
0.00 0.00 0.00 0.00 0.00 0.00 0.00 0.00 0.00 0.00 0.03 0.07 0.07 0.02 0.01 0.00 0.00 0.00 0.02 0.02 0.01 0.00 0.00 0.00 0.00 0.00 0.00 0.00 0.00 0.00 0.00 0.01 0.02 0.05 0.16 0.34 0.42 0.30 0.29 0.30 0.21 0.16 0.12
0.00 0.00 0.01 0.01 0.00 0.00 0.01 0.00 0.00 0.00 0.00 0.04 0.06 0.02 0.01 0.00 0.00 0.00 0.02 0.02 0.01 0.00 0.00 0.00 0.00 0.00 0.00 0.00 0.00 0.00 0.00 0.00 0.00 0.00 0.02 0.08 0.14 0.15 0.13 0.17 0.21 0.19 0.15
0.00 0.02 0.05 0.06 0.04 0.01 0.01 0.01 0.01 0.00 0.00 0.02 0.06 0.03 0.01 0.00 0.00 0.00 0.00 0.02 0.02 0.00 0.00 0.01 0.01 0.01 0.00 0.00 0.00 0.00 0.00 0.00 0.00 0.00 0.00 0.00 0.01 0.01 0.02 0.02 0.04 0.09 0.17
0.00 0.01 0.05 0.08 0.10 0.06 0.04 0.04 0.03 0.02 0.02 0.03 0.06 0.07 0.04 0.01 0.02 0.01 0.01 0.01 0.02 0.02 0.03 0.03 0.03 0.01 0.01 0.01 0.00 0.00 0.00 0.00 0.00 0.00 0.00 0.00 0.00 0.00 0.00 0.00 0.00 0.00 0.02
0.00 0.00 0.02 0.07 0.17 0.24 0.25 0.20 0.20 0.14 0.11 0.11 0.15 0.14 0.07 0.07 0.12 0.05 0.02 0.02 0.02 0.07 0.12 0.09 0.10 0.08 0.05 0.02 0.00 0.00 0.00 0.00 0.00 0.00 0.00 0.00 0.00 0.00 0.00 0.00 0.00 0.00 0.00
0.00 0.00 0.00 0.02 0.08 0.15 0.18 0.19 0.27 0.35 0.34 0.35 0.38 0.31 0.23 0.14 0.16 0.12 0.04 0.02 0.03 0.05 0.12 0.18 0.23 0.27 0.14 0.02 0.02 0.03 0.01 0.00 0.00 0.00 0.00 0.00 0.00 0.00 0.00 0.00 0.00 0.00 0.00
0.00 0.00 0.00 0.00 0.02 0.02 0.05 0.10 0.17 0.27 0.25 0.25 0.32 0.37 0.39 0.25 0.16 0.12 0.09 0.06 0.05 0.08 0.15 0.19 0.24 0.33 0.21 0.05 0.06 0.17 0.10 0.03 0.00 0.00 0.00 0.00 0.00 0.00 0.00 0.00 0.00 0.00 0.00
0.00 0.00 0.00 0.00 0.01 0.03 0.05 0.07 0.09 0.14 0.14 0.20 0.25 0.32 0.39 0.39 0.35 0.28 0.18 0.14 0.11 0.07 0.12 0.17 0.22 0.35 0.22 0.06 0.03 0.11 0.18 0.15 0.03 0.00 0.00 0.00 0.00 0.00 0.00 0.00 0.00 0.00 0.00
0.00 0.00 0.00 0.00 0.01 0.03 0.07 0.10 0.10 0.13 0.19 0.20 0.21 0.21 0.21 0.29 0.38 0.39 0.26 0.19 0.17 0.11 0.12 0.15 0.18 0.29 0.32 0.19 0.07 0.03 0.04 0.06 0.04 0.04 0.01 0.00 0.00 0.00 0.00 0.00 0.00 0.00 0.00
0.00 0.00 0.00 0.00 0.01 0.02 0.06 0.09 0.11 0.13 0.16 0.14 0.11 0.11 0.14 0.18 0.17 0.18 0.17 0.16 0.17 0.15 0.13 0.15 0.21 0.34 0.33 0.29 0.16 0.08 0.04 0.03 0.01 0.04 0.06 0.02 0.00 0.00 0.00 0.00 0.00 0.00 0.00
0.00 0.00 0.00 0.00 0.00 0.01 0.03 0.05 0.07 0.09 0.09 0.08 0.08 0.10 0.13 0.14 0.12 0.10 0.11 0.16 0.22 0.22 0.20 0.20 0.25 0.36 0.35 0.34 0.23 0.11 0.08 0.05 0.01 0.01 0.04 0.06 0.03 0.00 0.00 0.00 0.00 0.00 0.00

GEFSSE_prec_meanprecacc_018.txt.gz
Total_Precipitation_Accumulation
0.00 0.00 0.02 0.05 0.06 0.07 0.13 0.20 0.18 0.12 0.15 0.14 0.07 0.03 0.04 0.07 0.09 0.07 0.05 0.03 0.02 0.02 0.02 0.04 0.07 0.09 0.09 0.07 0.07 0.10 0.11 0.13 0.12 0.15 0.22 0.27 0.28 0.25 0.23 0.19 0.14 0.16 0.08
0.00 0.00 0.02 0.06 0.08 0.07 0.10 0.14 0.20 0.18 0.23 0.18 0.10 0.05 0.05 0.06 0.07 0.04 0.02 0.01 0.01 0.01 0.02 0.04 0.10 0.11 0.11 0.12 0.10 0.11 0.10 0.09 0.09 0.13 0.23 0.28 0.26 0.21 0.18 0.17 0.19 0.21 0.11
0.00 0.00 0.01 0.07 0.08 0.07 0.11 0.15 0.21 0.24 0.32 0.26 0.19 0.11 0.08 0.07 0.09 0.06 0.04 0.04 0.05 0.03 0.02 0.04 0.13 0.14 0.11 0.13 0.12 0.11 0.09 0.06 0.05 0.08 0.17 0.34 0.28 0.16 0.13 0.21 0.31 0.17 0.12
0.00 0.00 0.03 0.10 0.07 0.07 0.11 0.19 0.29 0.29 0.39 0.37 0.21 0.10 0.05 0.08 0.15 0.13 0.11 0.21 0.09 0.02 0.01 0.03 0.10 0.13 0.11 0.12 0.14 0.10 0.09 0.07 0.06 0.06 0.16 0.32 0.35 0.24 0.23 0.31 0.33 0.21 0.16
0.00 0.01 0.08 0.15 0.11 0.09 0.11 0.21 0.30 0.34 0.41 0.35 0.15 0.04 0.02 0.10 0.18 0.21 0.23 0.25 0.05 0.01 0.00 0.01 0.06 0.09 0.09 0.10 0.08 0.05 0.04 0.06 0.11 0.19 0.28 0.34 0.36 0.30 0.29 0.30 0.29 0.18 0.17
0.00 0.02 0.07 0.15 0.14 0.12 0.11 0.21 0.29 0.34 0.40 0.34 0.12 0.03 0.04 0.12 0.16 0.16 0.23 0.12 0.03 0.01 0.00 0.00 0.03 0.05 0.06 0.08 0.09 0.05 0.03 0.04 0.10 0.17 0.30 0.35 0.31 0.27 0.29 0.28 0.27 0.24 0.15
0.01 0.02 0.04 0.09 0.12 0.13 0.13 0.26 0.32 0.32 0.35 0.29 0.11 0.04 0.04 0.07 0.10 0.13 0.18 0.05 0.02 0.00 0.00 0.00 0.03 0.04 0.06 0.07 0.07 0.04 0.01 0.02 0.04 0.06 0.18 0.31 0.26 0.22 0.22 0.25 0.28 0.27 0.17
0.00 0.01 0.02 0.05 0.10 0.14 0.16 0.26 0.30 0.29 0.28 0.24 0.12 0.05 0.06 0.07 0.07 0.13 0.14 0.04 0.01 0.00 0.00 0.00 0.03 0.06 0.06 0.05 0.05 0.05 0.03 0.00 0.01 0.02 0.07 0.16 0.22 0.23 0.16 0.21 0.29 0.25 0.19
0.01 0.01 0.02 0.04 0.07 0.15 0.21 0.25 0.26 0.26 0.26 0.22 0.13 0.07 0.06 0.07 0.06 0.09 0.07 0.01 0.00 0.00 0.00 0.00 0.03 0.04 0.03 0.05 0.05 0.05 0.04 0.01 0.00 0.01 0.03 0.07 0.09 0.09 0.09 0.17 0.27 0.24 0.18
0.01 0.00 0.01 0.03 0.06 0.10 0.11 0.16 0.18 0.18 0.21 0.24 0.16 0.10 0.08 0.07 0.04 0.05 0.02 0.00 0.00 0.00 0.00 0.01 0.02 0.01 0.01 0.04 0.03 0.02 0.00 0.00 0.01 0.02 0.06 0.05 0.02 0.01 0.02 0.04 0.08 0.08 0.08
0.01 0.00 0.01 0.01 0.01 0.03 0.03 0.05 0.09 0.10 0.14 0.17 0.14 0.10 0.09 0.10 0.04 0.03 0.02 0.00 0.00 0.00 0.01 0.02 0.03 0.02 0.01 0.01 0.00 0.00 0.00 0.01 0.01 0.03 0.08 0.06 0.03 0.01 0.00 0.01 0.01 0.01 0.02
0.01 0.01 0.01 0.01 0.00 0.01 0.03 0.07 0.16 0.09 0.05 0.07 0.09 0.08 0.08 0.07 0.07 0.04 0.03 0.01 0.00 0.01 0.01 0.02 0.03 0.01 0.00 0.00 0.00 0.00 0.01 0.01 0.02 0.02 0.05 0.08 0.06 0.02 0.01 0.00 0.00 0.00 0.00
0.01 0.01 0.01 0.01 0.01 0.01 0.05 0.10 0.16 0.19 0.12 0.07 0.05 0.02 0.07 0.03 0.01 0.02 0.04 0.03 0.02 0.02 0.00 0.00 0.00 0.00 0.00 0.00 0.00 0.01 0.01 0.01 0.03 0.05 0.06 0.09 0.12 0.11 0.05 0.03 0.02 0.02 0.01
0.01 0.01 0.01 0.01 0.02 0.01 0.00 0.01 0.04 0.08 0.12 0.09 0.02 0.01 0.02 0.01 0.00 0.01 0.03 0.03 0.02 0.00 0.00 0.00 0.00 0.00 0.00 0.00 0.01 0.02 0.01 0.01 0.06 0.12 0.13 0.13 0.18 0.15 0.09 0.05 0.03 0.03 0.03
0.00 0.00 0.00 0.01 0.01 0.01 0.00 0.00 0.00 0.01 0.06 0.09 0.07 0.02 0.01 0.00 0.01 0.01 0.02 0.02 0.01 0.00 0.00 0.00 0.00 0.00 0.00 0.00 0.02 0.03 0.02 0.02 0.06 0.13 0.23 0.29 0.38 0.35 0.27 0.16 0.09 0.07 0.08
0.00 0.00 0.00 0.01 0.01 0.01 0.00 0.00 0.00 0.00 0.03 0.07 0.07 0.02 0.01 0.01 0.01 0.01 0.03 0.02 0.01 0.01 0.00 0.00 0.00 0.00 0.00 0.00 0.01 0.01 0.01 0.02 0.02 0.06 0.17 0.37 0.49 0.41 0.40 0.35 0.24 0.17 0.13
0.00 0.01 0.01 0.02 0.02 0.01 0.02 0.02 0.01 0.01 0.01 0.04 0.07 0.03 0.01 0.01 0.00 0.00 0.02 0.03 0.02 0.01 0.00 0.00 0.00 0.00 0.00 0.00 0.00 0.00 0.00 0.01 0.01 0.01 0.02 0.08 0.17 0.24 0.27 0.26 0.26 0.23 0.16
0.00 0.02 0.05 0.06 0.05 0.02 0.03 0.03 0.03 0.03 0.02 0.04 0.07 0.04 0.02 0.01 0.01 0.01 0.01 0.03 0.03 0.01 0.00 0.01 0.01 0.01 0.00 0.00 0.00 0.00 0.00 0.00 0.00 0.00 0.00 0.00 0.01 0.04 0.10 0.09 0.10 0.13 0.19
0.00 0.01 0.05 0.08 0.10 0.07 0.06 0.07 0.07 0.07 0.08 0.09 0.11 0.11 0.09 0.06 0.05 0.02 0.01 0.02 0.02 0.03 0.03 0.04 0.03 0.02 0.01 0.01 0.00 0.00 0.00 0.00 0.00 0.00 0.00 0.00 0.00 0.00 0.01 0.01 0.02 0.02 0.03
0.00 0.00 0.02 0.07 0.19 0.27 0.28 0.25 0.28 0.23 0.23 0.25 0.32 0.24 0.16 0.19 0.22 0.11 0.04 0.03 0.03 0.07 0.12 0.10 0.11 0.10 0.05 0.02 0.00 0.00 0.00 0.00 0.00 0.00 0.00 0.00 0.00 0.00 0.00 0.00 0.00 0.00 0.00
0.00 0.00 0.00 0.03 0.10 0.18 0.24 0.27 0.38 0.47 0.48 0.53 0.63 0.52 0.38 0.29 0.31 0.26 0.13 0.09 0.07 0.07 0.13 0.19 0.25 0.32 0.19 0.04 0.03 0.04 0.01 0.00 0.00 0.00 0.00 0.00 0.00 0.00 0.00 0.00 0.00 0.00 0.00
0.00 0.00 0.00 0.01 0.04 0.08 0.12 0.17 0.25 0.36 0.35 0.38 0.49 0.55 0.51 0.38 0.35 0.35 0.29 0.23 0.17 0.15 0.19 0.21 0.28 0.42 0.31 0.11 0.11 0.21 0.12 0.03 0.00 0.00 0.00 0.00 0.00 0.00 0.00 0.00 0.00 0.00 0.00
0.01 0.00 0.01 0.01 0.04 0.08 0.10 0.11 0.12 0.17 0.18 0.25 0.32 0.41 0.48 0.52 0.53 0.54 0.49 0.41 0.32 0.20 0.21 0.24 0.32 0.49 0.38 0.21 0.16 0.21 0.21 0.16 0.04 0.00 0.00 0.00 0.00 0.00 0.00 0.00 0.00 0.00 0.00
0.02 0.02 0.01 0.02 0.04 0.06 0.09 0.11 0.10 0.14 0.21 0.24 0.27 0.27 0.27 0.35 0.46 0.54 0.50 0.47 0.44 0.31 0.31 0.31 0.33 0.45 0.49 0.32 0.21 0.16 0.12 0.10 0.06 0.04 0.01 0.00 0.00 0.00 0.00 0.00 0.00 0.00 0.00
0.05 0.05 0.03 0.04 0.04 0.04 0.07 0.09 0.11 0.13 0.17 0.17 0.14 0.15 0.16 0.20 0.20 0.24 0.30 0.40 0.46 0.46 0.44 0.47 0.45 0.54 0.50 0.41 0.25 0.20 0.20 0.17 0.12 0.07 0.07 0.02 0.00 0.00 0.00 0.00 0.00 0.00 0.00
0.06 0.06 0.04 0.02 0.01 0.02 0.03 0.05 0.07 0.09 0.10 0.09 0.10 0.12 0.14 0.15 0.13 0.12 0.17 0.28 0.45 0.58 0.59 0.57 0.56 0.64 0.59 0.52 0.33 0.21 0.23 0.23 0.21 0.15 0.09 0.07 0.03 0.00 0.00 0.00 0.00 0.00 0.00

GEFSSE_prec_meanprecacc_024.txt.gz
Total_Precipitation_Accumulation
0.00 0.01 0.03 0.05 0.07 0.08 0.17 0.23 0.20 0.14 0.17 0.16 0.08 0.05 0.06 0.08 0.10 0.08 0.05 0.03 0.02 0.03 0.03 0.04 0.07 0.10 0.10 0.08 0.09 0.12 0.13 0.15 0.14 0.16 0.22 0.27 0.28 0.26 0.26 0.25 0.17 0.19 0.13
0.00 0.00 0.02 0.07 0.09 0.09 0.12 0.17 0.22 0.19 0.25 0.20 0.12 0.07 0.06 0.08 0.08 0.04 0.02 0.01 0.01 0.01 0.02 0.05 0.10 0.12 0.12 0.14 0.12 0.13 0.12 0.10 0.10 0.13 0.23 0.29 0.26 0.23 0.21 0.21 0.23 0.24 0.16
0.00 0.00 0.01 0.08 0.08 0.08 0.13 0.16 0.22 0.25 0.34 0.28 0.21 0.13 0.09 0.08 0.09 0.06 0.04 0.05 0.05 0.03 0.02 0.05 0.14 0.16 0.12 0.15 0.14 0.13 0.11 0.07 0.05 0.08 0.18 0.34 0.28 0.18 0.17 0.26 0.36 0.21 0.17
0.00 0.00 0.03 0.10 0.08 0.08 0.12 0.19 0.29 0.30 0.41 0.40 0.23 0.11 0.05 0.08 0.16 0.13 0.11 0.21 0.09 0.02 0.01 0.04 0.12 0.15 0.13 0.14 0.15 0.12 0.12 0.11 0.10 0.09 0.17 0.32 0.35 0.26 0.27 0.37 0.41 0.27 0.21
0.00 0.01 0.08 0.15 0.11 0.10 0.11 0.21 0.31 0.35 0.43 0.38 0.17 0.05 0.03 0.10 0.19 0.21 0.23 0.26 0.06 0.01 0.00 0.02 0.07 0.10 0.11 0.11 0.09 0.06 0.07 0.11 0.19 0.23 0.28 0.35 0.36 0.32 0.33 0.37 0.37 0.27 0.24
0.00 0.02 0.07 0.15 0.14 0.12 0.12 0.22 0.30 0.35 0.42 0.36 0.14 0.04 0.05 0.13 0.17 0.16 0.23 0.13 0.03 0.01 0.00 0.01 0.04 0.06 0.07 0.09 0.09 0.06 0.06 0.08 0.13 0.18 0.30 0.35 0.31 0.29 0.33 0.34 0.34 0.34 0.24
0.01 0.02 0.05 0.10 0.12 0.13 0.14 0.26 0.32 0.33 0.36 0.30 0.13 0.07 0.06 0.08 0.10 0.13 0.18 0.05 0.02 0.00 0.00 0.00 0.03 0.04 0.06 0.08 0.07 0.05 0.05 0.04 0.04 0.06 0.18 0.31 0.26 0.26 0.26 0.31 0.34 0.34 0.26
0.00 0.01 0.02 0.05 0.10 0.14 0.17 0.27 0.30 0.31 0.30 0.26 0.13 0.07 0.07 0.08 0.07 0.13 0.14 0.04 0.01 0.00 0.00 0.00 0.03 0.06 0.06 0.05 0.05 0.06 0.05 0.01 0.01 0.02 0.07 0.16 0.25 0.27 0.21 0.29 0.37 0.32 0.26
0.01 0.01 0.02 0.04 0.07 0.15 0.22 0.26 0.27 0.27 0.28 0.23 0.15 0.09 0.07 0.07 0.07 0.09 0.07 0.01 0.00 0.00 0.00 0.00 0.03 0.04 0.03 0.05 0.05 0.06 0.05 0.01 0.01 0.01 0.04 0.08 0.15 0.16 0.17 0.27 0.36 0.32 0.27
0.01 0.00 0.01 0.03 0.06 0.10 0.12 0.17 0.20 0.20 0.23 0.25 0.17 0.11 0.09 0.07 0.04 0.05 0.02 0.00 0.00 0.00 0.00 0.01 0.02 0.01 0.01 0.04 0.03 0.03 0.02 0.01 0.01 0.02 0.07 0.08 0.07 0.06 0.07 0.11 0.15 0.15 0.16
0.01 0.00 0.01 0.01 0.01 0.03 0.03 0.05 0.11 0.12 0.15 0.18 0.15 0.11 0.09 0.10 0.05 0.03 0.02 0.00 0.00 0.00 0.01 0.02 0.03 0.02 0.01 0.01 0.01 0.01 0.01 0.01 0.01 0.03 0.08 0.07 0.04 0.02 0.03 0.04 0.06 0.06 0.07
0.01 0.01 0.01 0.01 0.00 0.01 0.03 0.07 0.16 0.10 0.06 0.07 0.09 0.08 0.08 0.07 0.07 0.04 0.03 0.01 0.00 0.01 0.01 0.02 0.03 0.01 0.00 0.00 0.00 0.01 0.01 0.01 0.02 0.02 0.05 0.08 0.06 0.03 0.02 0.02 0.03 0.02 0.02
0.01 0.01 0.01 0.01 0.01 0.01 0.05 0.10 0.16 0.20 0.12 0.07 0.05 0.02 0.07 0.03 0.01 0.02 0.04 0.03 0.02 0.02 0.00 0.00 0.00 0.00 0.00 0.00 0.00 0.01 0.01 0.01 0.03 0.05 0.07 0.10 0.12 0.12 0.06 0.03 0.03 0.02 0.02
0.01 0.01 0.01 0.01 0.02 0.01 0.00 0.01 0.04 0.08 0.12 0.09 0.02 0.01 0.02 0.01 0.00 0.01 0.03 0.03 0.02 0.00 0.00 0.00 0.00 0.00 0.00 0.00 0.01 0.02 0.01 0.01 0.06 0.12 0.13 0.14 0.20 0.17 0.11 0.05 0.04 0.04 0.04
0.00 0.00 0.00 0.01 0.01 0.01 0.00 0.00 0.00 0.01 0.06 0.09 0.07 0.02 0.01 0.00 0.01 0.01 0.02 0.02 0.01 0.00 0.00 0.00 0.00 0.00 0.00 0.00 0.02 0.03 0.02 0.02 0.06 0.13 0.23 0.31 0.41 0.39 0.31 0.18 0.09 0.08 0.09
0.00 0.00 0.00 0.01 0.01 0.01 0.00 0.00 0.00 0.00 0.03 0.07 0.07 0.02 0.01 0.01 0.01 0.01 0.03 0.02 0.01 0.01 0.00 0.00 0.00 0.00 0.00 0.00 0.01 0.01 0.02 0.02 0.02 0.06 0.17 0.38 0.51 0.44 0.45 0.40 0.27 0.19 0.15
0.00 0.01 0.01 0.02 0.02 0.02 0.02 0.02 0.01 0.01 0.01 0.04 0.07 0.03 0.01 0.01 0.01 0.01 0.02 0.03 0.02 0.01 0.00 0.00 0.00 0.00 0.00 0.00 0.00 0.00 0.00 0.01 0.01 0.01 0.02 0.09 0.18 0.27 0.33 0.34 0.33 0.27 0.20
0.00 0.02 0.06 0.06 0.05 0.02 0.03 0.03 0.03 0.03 0.02 0.04 0.08 0.05 0.03 0.02 0.02 0.01 0.01 0.03 0.03 0.01 0.00 0.01 0.01 0.01 0.00 0.00 0.00 0.00 0.00 0.00 0.00 0.00 0.00 0.01 0.02 0.06 0.15 0.17 0.19 0.20 0.23
0.01 0.01 0.05 0.09 0.10 0.07 0.06 0.07 0.07 0.07 0.09 0.09 0.12 0.13 0.13 0.12 0.11 0.08 0.05 0.06 0.04 0.03 0.04 0.04 0.04 0.02 0.02 0.01 0.01 0.00 0.00 0.00 0.00 0.00 0.00 0.00 0.00 0.01 0.02 0.04 0.05 0.05 0.07
0.01 0.00 0.02 0.08 0.19 0.27 0.29 0.25 0.29 0.25 0.25 0.27 0.36 0.33 0.25 0.30 0.37 0.25 0.20 0.20 0.18 0.16 0.16 0.11 0.12 0.11 0.06 0.03 0.00 0.00 0.01 0.00 0.00 0.00 0.00 0.00 0.00 0.00 0.00 0.00 0.00 0.00 0.01
0.01 0.00 0.00 0.03 0.10 0.18 0.25 0.28 0.40 0.49 0.51 0.58 0.70 0.64 0.50 0.43 0.48 0.41 0.34 0.35 0.36 0.31 0.29 0.28 0.29 0.34 0.20 0.05 0.04 0.04 0.01 0.00 0.00 0.00 0.00 0.00 0.00 0.00 0.00 0.00 0.00 0.00 0.00
0.00 0.01 0.01 0.03 0.06 0.10 0.16 0.24 0.32 0.42 0.41 0.44 0.57 0.65 0.61 0.49 0.50 0.53 0.51 0.49 0.49 0.49 0.47 0.41 0.41 0.50 0.37 0.16 0.14 0.23 0.12 0.03 0.00 0.00 0.00 0.00 0.00 0.00 0.00 0.00 0.00 0.00 0.00
0.01 0.02 0.03 0.06 0.12 0.18 0.24 0.27 0.22 0.25 0.24 0.30 0.38 0.49 0.58 0.63 0.66 0.66 0.65 0.60 0.56 0.49 0.51 0.55 0.58 0.72 0.57 0.34 0.25 0.27 0.24 0.17 0.04 0.00 0.00 0.00 0.00 0.00 0.00 0.00 0.00 0.00 0.00
0.04 0.06 0.11 0.19 0.29 0.36 0.41 0.35 0.24 0.22 0.28 0.31 0.35 0.35 0.35 0.43 0.55 0.64 0.60 0.59 0.56 0.48 0.54 0.61 0.68 0.84 0.84 0.58 0.39 0.28 0.19 0.13 0.08 0.05 0.01 0.00 0.00 0.00 0.00 0.00 0.00 0.00 0.00
0.12 0.19 0.30 0.45 0.61 0.59 0.48 0.36 0.25 0.23 0.26 0.24 0.20 0.20 0.22 0.28 0.28 0.31 0.38 0.47 0.53 0.54 0.58 0.69 0.75 0.92 0.91 0.78 0.52 0.41 0.36 0.26 0.16 0.09 0.08 0.02 0.00 0.00 0.00 0.00 0.00 0.00 0.00
0.21 0.33 0.45 0.56 0.63 0.57 0.41 0.27 0.20 0.19 0.17 0.15 0.14 0.16 0.18 0.20 0.18 0.17 0.21 0.33 0.49 0.63 0.68 0.71 0.78 0.94 0.96 0.92 0.70 0.50 0.45 0.39 0.31 0.21 0.12 0.08 0.03 0.00 0.00 0.00 0.00 0.00 0.00

GEFSSE_prec_meanprecacc_030.txt.gz
Total_Precipitation_Accumulation
0.00 0.01 0.03 0.05 0.07 0.09 0.18 0.25 0.22 0.15 0.18 0.17 0.09 0.05 0.06 0.08 0.10 0.08 0.05 0.04 0.03 0.03 0.04 0.06 0.10 0.15 0.14 0.12 0.14 0.18 0.20 0.20 0.19 0.21 0.27 0.32 0.32 0.29 0.27 0.25 0.19 0.24 0.15
0.00 0.00 0.03 0.07 0.09 0.09 0.14 0.19 0.24 0.21 0.27 0.22 0.14 0.08 0.07 0.08 0.08 0.04 0.02 0.01 0.01 0.02 0.04 0.07 0.12 0.15 0.16 0.18 0.16 0.18 0.18 0.16 0.14 0.16 0.27 0.33 0.31 0.27 0.23 0.22 0.25 0.28 0.18
0.00 0.00 0.02 0.08 0.09 0.09 0.13 0.18 0.24 0.27 0.36 0.31 0.23 0.14 0.10 0.08 0.09 0.07 0.04 0.05 0.05 0.04 0.03 0.06 0.16 0.19 0.16 0.20 0.19 0.17 0.15 0.11 0.08 0.12 0.21 0.39 0.33 0.23 0.20 0.28 0.39 0.24 0.20
0.00 0.00 0.03 0.10 0.08 0.08 0.13 0.22 0.32 0.33 0.44 0.44 0.26 0.13 0.06 0.09 0.16 0.13 0.11 0.21 0.09 0.02 0.01 0.05 0.14 0.17 0.16 0.19 0.20 0.16 0.16 0.15 0.16 0.14 0.19 0.35 0.40 0.30 0.31 0.41 0.44 0.30 0.25
0.00 0.01 0.08 0.15 0.11 0.10 0.12 0.24 0.33 0.38 0.46 0.41 0.19 0.06 0.03 0.10 0.19 0.21 0.23 0.26 0.06 0.01 0.01 0.03 0.09 0.13 0.13 0.13 0.12 0.10 0.11 0.17 0.27 0.28 0.33 0.40 0.44 0.37 0.38 0.42 0.40 0.28 0.26
0.00 0.02 0.07 0.15 0.14 0.13 0.13 0.25 0.34 0.40 0.45 0.39 0.17 0.06 0.06 0.13 0.17 0.16 0.24 0.13 0.04 0.01 0.00 0.01 0.05 0.07 0.08 0.10 0.11 0.08 0.10 0.14 0.17 0.23 0.38 0.42 0.37 0.33 0.37 0.39 0.38 0.37 0.27
0.01 0.02 0.05 0.10 0.12 0.14 0.15 0.30 0.39 0.40 0.42 0.34 0.16 0.09 0.07 0.09 0.10 0.13 0.18 0.06 0.02 0.01 0.00 0.01 0.03 0.04 0.06 0.08 0.09 0.09 0.09 0.06 0.06 0.10 0.23 0.38 0.32 0.29 0.30 0.35 0.38 0.39 0.30
0.00 0.01 0.02 0.06 0.11 0.15 0.20 0.30 0.37 0.37 0.35 0.30 0.16 0.09 0.08 0.08 0.08 0.13 0.14 0.04 0.01 0.00 0.00 0.00 0.03 0.06 0.06 0.06 0.07 0.10 0.09 0.02 0.01 0.03 0.10 0.22 0.30 0.30 0.25 0.33 0.42 0.37 0.33
0.01 0.01 0.02 0.04 0.08 0.17 0.26 0.31 0.35 0.35 0.33 0.28 0.17 0.10 0.08 0.08 0.07 0.09 0.07 0.01 0.00 0.00 0.00 0.00 0.03 0.04 0.03 0.06 0.07 0.09 0.07 0.02 0.01 0.02 0.04 0.12 0.19 0.19 0.21 0.32 0.43 0.39 0.34
0.01 0.00 0.01 0.03 0.06 0.11 0.14 0.21 0.29 0.30 0.30 0.29 0.19 0.12 0.10 0.08 0.05 0.05 0.02 0.00 0.00 0.00 0.00 0.01 0.02 0.01 0.01 0.04 0.04 0.05 0.04 0.01 0.01 0.02 0.08 0.09 0.10 0.11 0.13 0.16 0.21 0.23 0.23
0.01 0.00 0.01 0.01 0.02 0.03 0.05 0.08 0.18 0.23 0.25 0.23 0.18 0.12 0.10 0.11 0.05 0.04 0.02 0.00 0.00 0.00 0.01 0.02 0.03 0.02 0.01 0.02 0.02 0.03 0.02 0.01 0.01 0.03 0.09 0.08 0.06 0.07 0.07 0.08 0.11 0.12 0.14
0.01 0.01 0.01 0.01 0.01 0.01 0.03 0.10 0.22 0.16 0.13 0.11 0.13 0.09 0.09 0.07 0.07 0.04 0.03 0.01 0.00 0.01 0.01 0.02 0.03 0.01 0.00 0.00 0.01 0.01 0.01 0.01 0.02 0.03 0.05 0.08 0.07 0.04 0.03 0.05 0.07 0.07 0.07
0.01 0.01 0.01 0.01 0.01 0.01 0.05 0.12 0.20 0.26 0.18 0.12 0.07 0.04 0.07 0.03 0.01 0.02 0.04 0.03 0.02 0.02 0.00 0.00 0.00 0.00 0.00 0.00 0.00 0.01 0.01 0.01 0.03 0.05 0.07 0.10 0.13 0.12 0.06 0.04 0.05 0.05 0.05
0.01 0.01 0.01 0.01 0.02 0.01 0.01 0.02 0.06 0.10 0.14 0.12 0.04 0.01 0.02 0.01 0.00 0.01 0.03 0.03 0.02 0.00 0.00 0.00 0.00 0.00 0.00 0.00 0.01 0.02 0.01 0.01 0.06 0.12 0.14 0.16 0.21 0.19 0.13 0.06 0.04 0.05 0.04
0.00 0.00 0.00 0.01 0.01 0.01 0.00 0.00 0.01 0.02 0.07 0.11 0.08 0.02 0.01 0.00 0.01 0.01 0.02 0.02 0.01 0.00 0.00 0.00 0.00 0.00 0.00 0.00 0.02 0.03 0.02 0.02 0.06 0.13 0.24 0.32 0.44 0.42 0.34 0.21 0.10 0.08 0.11
0.00 0.00 0.00 0.01 0.01 0.01 0.00 0.00 0.00 0.01 0.03 0.08 0.08 0.02 0.01 0.01 0.01 0.01 0.03 0.02 0.01 0.01 0.00 0.00 0.00 0.00 0.00 0.00 0.01 0.01 0.02 0.02 0.02 0.06 0.17 0.39 0.53 0.48 0.49 0.45 0.30 0.20 0.16
0.00 0.01 0.01 0.02 0.02 0.02 0.02 0.02 0.01 0.01 0.01 0.04 0.07 0.03 0.01 0.01 0.01 0.01 0.02 0.03 0.02 0.01 0.00 0.00 0.00 0.00 0.00 0.00 0.00 0.00 0.00 0.01 0.01 0.01 0.02 0.09 0.20 0.30 0.38 0.39 0.38 0.30 0.22
0.01 0.02 0.06 0.06 0.05 0.02 0.03 0.03 0.03 0.03 0.03 0.04 0.08 0.05 0.03 0.03 0.02 0.01 0.01 0.03 0.03 0.01 0.00 0.01 0.01 0.01 0.00 0.01 0.01 0.01 0.00 0.00 0.00 0.00 0.00 0.01 0.03 0.08 0.20 0.21 0.23 0.25 0.26
0.01 0.02 0.05 0.09 0.10 0.07 0.06 0.08 0.08 0.07 0.09 0.10 0.12 0.13 0.13 0.12 0.13 0.13 0.11 0.09 0.05 0.03 0.04 0.04 0.04 0.02 0.02 0.03 0.02 0.01 0.00 0.00 0.01 0.00 0.00 0.00 0.01 0.02 0.06 0.06 0.08 0.09 0.10
0.01 0.01 0.02 0.08 0.19 0.28 0.29 0.26 0.30 0.26 0.27 0.28 0.37 0.33 0.27 0.34 0.45 0.40 0.40 0.33 0.24 0.19 0.17 0.12 0.12 0.11 0.07 0.05 0.01 0.01 0.01 0.01 0.00 0.00 0.00 0.00 0.00 0.00 0.00 0.01 0.01 0.01 0.02
0.02 0.01 0.00 0.03 0.11 0.20 0.27 0.31 0.44 0.54 0.56 0.61 0.73 0.67 0.54 0.53 0.66 0.66 0.62 0.59 0.52 0.41 0.38 0.35 0.33 0.37 0.22 0.06 0.06 0.06 0.02 0.01 0.00 0.00 0.00 0.00 0.00 0.00 0.00 0.00 0.00 0.00 0.00
0.02 0.01 0.01 0.03 0.09 0.14 0.22 0.34 0.44 0.53 0.50 0.53 0.65 0.72 0.69 0.62 0.71 0.75 0.81 0.78 0.74 0.70 0.65 0.55 0.52 0.60 0.44 0.19 0.18 0.27 0.15 0.05 0.02 0.01 0.00 0.00 0.00 0.00 0.00 0.00 0.00 0.00 0.00
0.04 0.03 0.04 0.07 0.16 0.29 0.40 0.50 0.47 0.43 0.40 0.45 0.51 0.62 0.70 0.75 0.82 0.84 0.85 0.82 0.77 0.69 0.69 0.72 0.72 0.86 0.70 0.42 0.29 0.31 0.28 0.22 0.07 0.01 0.00 0.00 0.00 0.00 0.00 0.00 0.00 0.00 0.00
0.06 0.08 0.13 0.24 0.40 0.57 0.73 0.76 0.62 0.56 0.56 0.52 0.51 0.50 0.49 0.53 0.64 0.74 0.71 0.71 0.67 0.60 0.67 0.75 0.79 0.95 0.97 0.68 0.46 0.34 0.23 0.18 0.12 0.08 0.03 0.00 0.00 0.00 0.00 0.00 0.00 0.00 0.00
0.14 0.21 0.34 0.54 0.80 0.97 1.03 0.97 0.82 0.66 0.54 0.43 0.35 0.34 0.33 0.35 0.34 0.37 0.44 0.53 0.59 0.60 0.65 0.77 0.81 0.98 0.98 0.87 0.62 0.50 0.44 0.32 0.20 0.13 0.11 0.04 0.01 0.00 0.00 0.00 0.00 0.00 0.00
0.24 0.38 0.54 0.71 0.93 1.00 0.98 0.92 0.82 0.71 0.55 0.41 0.33 0.29 0.26 0.25 0.21 0.20 0.24 0.36 0.53 0.66 0.71 0.75 0.81 0.97 1.00 0.97 0.78 0.59 0.54 0.49 0.42 0.30 0.19 0.12 0.05 0.01 0.00 0.00 0.00 0.00 0.00

GEFSSE_prec_meanprecacc_036.txt.gz
Total_Precipitation_Accumulation
0.00 0.01 0.03 0.06 0.08 0.09 0.18 0.25 0.23 0.16 0.20 0.18 0.10 0.06 0.07 0.08 0.11 0.09 0.06 0.04 0.04 0.04 0.06 0.09 0.14 0.20 0.19 0.17 0.19 0.25 0.28 0.26 0.23 0.24 0.29 0.33 0.33 0.31 0.29 0.28 0.27 0.40 0.20
0.00 0.00 0.03 0.07 0.10 0.10 0.14 0.19 0.24 0.22 0.28 0.23 0.14 0.08 0.07 0.08 0.09 0.05 0.03 0.02 0.03 0.04 0.05 0.08 0.14 0.17 0.20 0.24 0.24 0.26 0.24 0.19 0.16 0.19 0.32 0.39 0.34 0.29 0.24 0.23 0.32 0.40 0.23
0.00 0.00 0.02 0.08 0.09 0.09 0.14 0.18 0.25 0.28 0.37 0.31 0.24 0.15 0.10 0.09 0.09 0.07 0.04 0.06 0.06 0.05 0.05 0.08 0.18 0.21 0.20 0.27 0.28 0.25 0.21 0.14 0.11 0.16 0.32 0.60 0.44 0.25 0.21 0.30 0.42 0.27 0.23
0.00 0.00 0.03 0.10 0.09 0.09 0.13 0.22 0.32 0.33 0.45 0.44 0.26 0.13 0.06 0.09 0.16 0.13 0.12 0.21 0.10 0.02 0.02 0.06 0.15 0.20 0.19 0.23 0.26 0.23 0.21 0.19 0.19 0.19 0.39 0.60 0.60 0.35 0.32 0.42 0.46 0.33 0.30
0.00 0.01 0.08 0.15 0.12 0.10 0.13 0.24 0.34 0.39 0.46 0.41 0.20 0.06 0.03 0.10 0.19 0.21 0.23 0.26 0.06 0.02 0.01 0.04 0.11 0.16 0.16 0.15 0.15 0.14 0.14 0.19 0.29 0.38 0.57 0.66 0.66 0.44 0.40 0.44 0.43 0.32 0.32
0.00 0.02 0.07 0.15 0.15 0.13 0.13 0.26 0.35 0.41 0.46 0.39 0.17 0.06 0.06 0.13 0.17 0.16 0.24 0.13 0.04 0.01 0.01 0.02 0.06 0.10 0.10 0.11 0.12 0.10 0.13 0.16 0.21 0.37 0.58 0.69 0.60 0.40 0.40 0.42 0.41 0.42 0.34
0.01 0.02 0.05 0.10 0.12 0.14 0.15 0.30 0.41 0.42 0.43 0.35 0.16 0.09 0.07 0.09 0.10 0.13 0.18 0.06 0.02 0.01 0.00 0.01 0.04 0.05 0.07 0.09 0.09 0.09 0.09 0.07 0.11 0.20 0.38 0.61 0.48 0.32 0.32 0.37 0.42 0.45 0.37
0.00 0.01 0.03 0.06 0.11 0.15 0.20 0.31 0.38 0.38 0.37 0.31 0.17 0.09 0.08 0.08 0.08 0.14 0.14 0.04 0.01 0.00 0.00 0.01 0.03 0.06 0.07 0.07 0.08 0.10 0.09 0.03 0.03 0.07 0.20 0.37 0.36 0.32 0.28 0.38 0.47 0.45 0.39
0.01 0.01 0.02 0.05 0.08 0.17 0.26 0.32 0.36 0.37 0.36 0.31 0.19 0.11 0.08 0.08 0.07 0.09 0.07 0.01 0.00 0.00 0.00 0.00 0.03 0.04 0.03 0.06 0.08 0.09 0.07 0.03 0.01 0.03 0.09 0.19 0.21 0.21 0.25 0.37 0.49 0.49 0.43
0.01 0.00 0.01 0.03 0.07 0.11 0.14 0.21 0.30 0.34 0.34 0.32 0.22 0.14 0.10 0.08 0.05 0.05 0.02 0.00 0.00 0.00 0.00 0.01 0.02 0.01 0.01 0.04 0.04 0.05 0.04 0.02 0.02 0.04 0.10 0.11 0.10 0.12 0.15 0.19 0.25 0.28 0.30
0.01 0.00 0.01 0.01 0.02 0.04 0.07 0.09 0.19 0.26 0.29 0.26 0.20 0.13 0.11 0.12 0.06 0.04 0.02 0.00 0.00 0.00 0.01 0.02 0.03 0.02 0.01 0.02 0.02 0.03 0.02 0.02 0.02 0.05 0.10 0.09 0.06 0.07 0.09 0.11 0.14 0.16 0.18
0.01 0.01 0.01 0.01 0.01 0.02 0.04 0.15 0.26 0.22 0.17 0.15 0.20 0.12 0.11 0.11 0.10 0.05 0.03 0.01 0.00 0.01 0.01 0.02 0.03 0.01 0.00 0.00 0.01 0.02 0.01 0.02 0.03 0.03 0.06 0.08 0.07 0.04 0.04 0.07 0.09 0.09 0.09
0.01 0.01 0.01 0.01 0.01 0.01 0.08 0.19 0.30 0.37 0.28 0.23 0.17 0.09 0.12 0.07 0.03 0.03 0.04 0.03 0.02 0.02 0.00 0.00 0.00 0.00 0.00 0.00 0.00 0.01 0.01 0.01 0.03 0.05 0.07 0.10 0.13 0.12 0.07 0.05 0.06 0.06 0.06
0.01 0.01 0.01 0.01 0.02 0.01 0.01 0.05 0.12 0.16 0.21 0.19 0.10 0.04 0.04 0.03 0.02 0.01 0.03 0.03 0.02 0.00 0.00 0.00 0.00 0.00 0.00 0.00 0.01 0.02 0.01 0.01 0.06 0.12 0.15 0.16 0.21 0.19 0.13 0.06 0.05 0.05 0.05
0.00 0.00 0.00 0.01 0.01 0.01 0.01 0.01 0.02 0.04 0.11 0.14 0.12 0.03 0.02 0.01 0.01 0.01 0.02 0.02 0.01 0.00 0.00 0.00 0.00 0.00 0.00 0.00 0.03 0.03 0.02 0.02 0.06 0.13 0.25 0.32 0.44 0.42 0.35 0.21 0.11 0.09 0.11
0.00 0.00 0.00 0.01 0.01 0.01 0.00 0.01 0.00 0.02 0.05 0.10 0.10 0.02 0.01 0.01 0.01 0.01 0.03 0.02 0.01 0.01 0.00 0.00 0.00 0.00 0.00 0.00 0.01 0.01 0.02 0.02 0.02 0.06 0.18 0.39 0.53 0.48 0.49 0.45 0.30 0.20 0.17
0.01 0.01 0.02 0.03 0.02 0.02 0.02 0.02 0.01 0.01 0.02 0.06 0.08 0.03 0.02 0.01 0.01 0.01 0.02 0.03 0.02 0.01 0.00 0.00 0.00 0.00 0.00 0.00 0.00 0.00 0.00 0.01 0.01 0.01 0.02 0.09 0.21 0.30 0.38 0.39 0.38 0.30 0.23
0.02 0.04 0.06 0.07 0.05 0.02 0.03 0.03 0.03 0.03 0.03 0.05 0.08 0.05 0.04 0.03 0.02 0.02 0.01 0.04 0.03 0.01 0.00 0.01 0.01 0.01 0.00 0.01 0.01 0.01 0.00 0.00 0.00 0.00 0.00 0.01 0.04 0.10 0.21 0.21 0.24 0.25 0.27
0.03 0.04 0.06 0.09 0.10 0.07 0.06 0.08 0.08 0.08 0.10 0.10 0.13 0.14 0.13 0.12 0.13 0.13 0.12 0.10 0.05 0.03 0.04 0.04 0.04 0.02 0.02 0.03 0.02 0.01 0.00 0.00 0.01 0.00 0.00 0.00 0.01 0.03 0.08 0.07 0.08 0.09 0.11
0.05 0.04 0.04 0.08 0.20 0.28 0.30 0.27 0.31 0.27 0.28 0.29 0.37 0.34 0.27 0.35 0.46 0.43 0.43 0.34 0.25 0.20 0.18 0.12 0.12 0.11 0.07 0.05 0.02 0.01 0.01 0.01 0.00 0.00 0.00 0.00 0.00 0.00 0.01 0.01 0.03 0.02 0.02
0.05 0.04 0.03 0.05 0.13 0.21 0.29 0.34 0.49 0.58 0.60 0.65 0.75 0.69 0.55 0.54 0.69 0.74 0.68 0.64 0.57 0.45 0.40 0.36 0.35 0.38 0.23 0.07 0.07 0.08 0.03 0.01 0.00 0.00 0.00 0.00 0.00 0.00 0.00 0.00 0.01 0.01 0.01
0.03 0.03 0.03 0.05 0.10 0.17 0.26 0.40 0.49 0.59 0.57 0.61 0.72 0.78 0.74 0.68 0.78 0.82 0.89 0.86 0.82 0.78 0.72 0.60 0.59 0.69 0.50 0.21 0.22 0.33 0.21 0.09 0.03 0.01 0.00 0.00 0.00 0.00 0.00 0.00 0.00 0.00 0.00
0.04 0.04 0.05 0.09 0.18 0.32 0.49 0.66 0.66 0.67 0.66 0.68 0.69 0.76 0.80 0.87 0.95 0.95 0.96 0.94 0.87 0.79 0.79 0.84 0.86 1.06 0.86 0.50 0.33 0.38 0.37 0.31 0.15 0.04 0.01 0.00 0.00 0.00 0.00 0.00 0.00 0.00 0.00
0.06 0.09 0.14 0.27 0.43 0.63 0.87 1.01 0.98 0.98 0.99 0.83 0.75 0.68 0.63 0.66 0.78 0.88 0.85 0.83 0.77 0.72 0.82 0.89 0.88 1.09 1.14 0.81 0.55 0.39 0.28 0.24 0.23 0.17 0.06 0.01 0.01 0.01 0.00 0.00 0.00 0.00 0.00
0.14 0.22 0.35 0.55 0.83 1.05 1.21 1.26 1.29 1.21 1.06 0.84 0.64 0.59 0.54 0.55 0.52 0.56 0.61 0.70 0.75 0.76 0.81 0.90 0.93 1.13 1.14 1.02 0.76 0.63 0.53 0.40 0.26 0.24 0.24 0.09 0.02 0.01 0.00 0.00 0.00 0.00 0.00
0.26 0.39 0.55 0.73 0.98 1.11 1.17 1.21 1.26 1.28 1.19 0.98 0.80 0.68 0.57 0.49 0.43 0.40 0.43 0.54 0.70 0.82 0.87 0.91 0.96 1.11 1.14 1.10 0.91 0.71 0.64 0.58 0.51 0.46 0.35 0.23 0.10 0.02 0.02 0.01 0.01 0.01 0.00

GEFSSE_prec_meanprecacc_042.txt.gz
Total_Precipitation_Accumulation
0.00 0.01 0.04 0.06 0.08 0.09 0.18 0.25 0.23 0.17 0.20 0.18 0.10 0.06 0.07 0.08 0.11 0.09 0.06 0.05 0.04 0.05 0.07 0.10 0.15 0.21 0.20 0.18 0.20 0.27 0.31 0.29 0.26 0.26 0.32 0.36 0.35 0.32 0.31 0.33 0.33 0.43 0.24
0.00 0.00 0.03 0.08 0.10 0.10 0.14 0.19 0.25 0.22 0.28 0.23 0.14 0.09 0.08 0.08 0.09 0.05 0.03 0.03 0.03 0.04 0.06 0.09 0.15 0.17 0.20 0.24 0.25 0.29 0.28 0.22 0.18 0.21 0.35 0.43 0.38 0.32 0.27 0.26 0.35 0.42 0.27
0.00 0.00 0.02 0.09 0.09 0.09 0.14 0.18 0.25 0.28 0.37 0.32 0.24 0.15 0.10 0.09 0.10 0.07 0.05 0.06 0.07 0.05 0.05 0.08 0.18 0.21 0.20 0.27 0.29 0.27 0.23 0.15 0.12 0.18 0.36 0.65 0.49 0.31 0.26 0.33 0.46 0.30 0.25
0.00 0.00 0.03 0.10 0.09 0.09 0.13 0.22 0.32 0.34 0.45 0.44 0.26 0.13 0.06 0.09 0.16 0.13 0.12 0.22 0.10 0.03 0.02 0.06 0.15 0.20 0.20 0.23 0.27 0.24 0.22 0.21 0.21 0.22 0.46 0.67 0.68 0.45 0.41 0.47 0.50 0.37 0.31
0.00 0.01 0.08 0.15 0.12 0.11 0.13 0.25 0.35 0.39 0.46 0.41 0.20 0.06 0.03 0.10 0.19 0.21 0.23 0.26 0.07 0.02 0.02 0.04 0.11 0.16 0.16 0.15 0.16 0.14 0.15 0.20 0.32 0.41 0.60 0.70 0.71 0.53 0.48 0.49 0.46 0.35 0.35
0.00 0.02 0.07 0.15 0.15 0.13 0.13 0.26 0.35 0.41 0.46 0.39 0.17 0.06 0.06 0.13 0.17 0.16 0.24 0.13 0.04 0.02 0.01 0.02 0.07 0.10 0.10 0.11 0.13 0.11 0.14 0.18 0.26 0.41 0.60 0.72 0.63 0.45 0.45 0.47 0.45 0.46 0.37
0.01 0.02 0.05 0.10 0.13 0.14 0.16 0.31 0.41 0.42 0.44 0.35 0.16 0.09 0.07 0.09 0.10 0.13 0.18 0.06 0.02 0.01 0.00 0.01 0.05 0.06 0.07 0.09 0.10 0.09 0.09 0.09 0.15 0.25 0.41 0.65 0.50 0.36 0.36 0.41 0.46 0.48 0.39
0.00 0.01 0.03 0.06 0.11 0.15 0.20 0.31 0.39 0.39 0.37 0.32 0.17 0.09 0.08 0.08 0.08 0.14 0.14 0.04 0.01 0.00 0.00 0.01 0.03 0.06 0.07 0.07 0.08 0.10 0.10 0.06 0.06 0.11 0.23 0.40 0.40 0.35 0.31 0.41 0.50 0.47 0.41
0.01 0.01 0.02 0.05 0.08 0.17 0.27 0.32 0.37 0.38 0.37 0.31 0.19 0.12 0.08 0.08 0.07 0.09 0.07 0.01 0.00 0.00 0.00 0.00 0.03 0.04 0.03 0.06 0.08 0.10 0.08 0.06 0.04 0.06 0.12 0.23 0.26 0.24 0.27 0.38 0.50 0.52 0.46
0.01 0.00 0.01 0.03 0.07 0.11 0.14 0.22 0.30 0.35 0.35 0.33 0.22 0.14 0.10 0.08 0.05 0.05 0.02 0.00 0.00 0.00 0.00 0.01 0.02 0.01 0.02 0.04 0.04 0.06 0.05 0.03 0.05 0.08 0.12 0.14 0.14 0.15 0.17 0.20 0.26 0.30 0.33
0.01 0.00 0.01 0.01 0.02 0.04 0.07 0.09 0.19 0.26 0.30 0.26 0.21 0.13 0.11 0.12 0.06 0.04 0.02 0.00 0.00 0.00 0.01 0.02 0.03 0.02 0.01 0.02 0.02 0.04 0.03 0.04 0.06 0.08 0.12 0.11 0.08 0.09 0.11 0.12 0.15 0.17 0.19
0.01 0.01 0.01 0.01 0.01 0.02 0.04 0.15 0.26 0.22 0.17 0.15 0.20 0.12 0.11 0.11 0.10 0.05 0.03 0.01 0.00 0.01 0.01 0.02 0.03 0.01 0.00 0.00 0.01 0.02 0.02 0.03 0.06 0.05 0.07 0.10 0.08 0.05 0.06 0.08 0.09 0.10 0.10
0.01 0.01 0.02 0.01 0.01 0.02 0.08 0.19 0.30 0.37 0.28 0.23 0.17 0.09 0.12 0.08 0.03 0.03 0.04 0.03 0.02 0.02 0.00 0.00 0.00 0.00 0.00 0.00 0.00 0.01 0.01 0.02 0.04 0.06 0.08 0.11 0.13 0.13 0.07 0.06 0.07 0.07 0.07
0.01 0.01 0.02 0.02 0.02 0.01 0.01 0.05 0.12 0.16 0.21 0.19 0.10 0.05 0.05 0.03 0.02 0.02 0.03 0.03 0.02 0.00 0.00 0.00 0.00 0.00 0.00 0.00 0.01 0.03 0.02 0.02 0.07 0.12 0.15 0.16 0.22 0.19 0.13 0.07 0.05 0.06 0.06
0.01 0.01 0.01 0.01 0.01 0.01 0.01 0.01 0.02 0.05 0.11 0.14 0.13 0.05 0.03 0.02 0.02 0.02 0.02 0.02 0.01 0.00 0.00 0.00 0.00 0.00 0.00 0.01 0.03 0.03 0.03 0.02 0.06 0.13 0.25 0.32 0.44 0.42 0.35 0.21 0.11 0.09 0.11
0.04 0.04 0.02 0.02 0.02 0.01 0.00 0.01 0.00 0.02 0.05 0.11 0.10 0.03 0.03 0.02 0.02 0.02 0.03 0.02 0.01 0.01 0.00 0.00 0.00 0.00 0.00 0.00 0.01 0.01 0.02 0.02 0.02 0.06 0.18 0.39 0.53 0.48 0.50 0.45 0.30 0.21 0.17
0.10 0.08 0.07 0.06 0.06 0.04 0.03 0.02 0.02 0.02 0.02 0.07 0.09 0.04 0.05 0.04 0.02 0.02 0.03 0.03 0.02 0.01 0.00 0.00 0.00 0.00 0.00 0.00 0.00 0.00 0.00 0.01 0.01 0.01 0.02 0.09 0.21 0.30 0.38 0.39 0.38 0.31 0.24
0.16 0.18 0.17 0.16 0.13 0.07 0.06 0.06 0.05 0.04 0.04 0.06 0.09 0.06 0.06 0.05 0.05 0.03 0.02 0.04 0.03 0.01 0.00 0.01 0.01 0.01 0.00 0.01 0.01 0.01 0.00 0.00 0.00 0.00 0.00 0.01 0.04 0.10 0.21 0.21 0.24 0.26 0.27
0.20 0.20 0.21 0.24 0.23 0.17 0.13 0.14 0.14 0.13 0.14 0.14 0.16 0.16 0.15 0.16 0.17 0.16 0.13 0.10 0.05 0.04 0.04 0.04 0.04 0.02 0.02 0.03 0.02 0.02 0.01 0.00 0.01 0.00 0.01 0.01 0.02 0.04 0.08 0.07 0.08 0.09 0.11
0.20 0.20 0.21 0.27 0.40 0.45 0.44 0.40 0.45 0.39 0.37 0.38 0.43 0.38 0.30 0.37 0.49 0.47 0.47 0.36 0.26 0.20 0.18 0.12 0.12 0.12 0.07 0.05 0.02 0.02 0.01 0.01 0.01 0.00 0.01 0.01 0.01 0.01 0.01 0.01 0.03 0.02 0.02
0.16 0.18 0.20 0.24 0.37 0.44 0.45 0.52 0.67 0.75 0.77 0.80 0.86 0.77 0.62 0.59 0.75 0.83 0.75 0.68 0.60 0.47 0.42 0.38 0.36 0.40 0.24 0.08 0.08 0.09 0.04 0.01 0.01 0.01 0.00 0.01 0.01 0.01 0.00 0.00 0.01 0.01 0.01
0.09 0.12 0.17 0.22 0.31 0.38 0.46 0.63 0.82 0.95 0.87 0.87 0.96 0.99 0.90 0.79 0.88 0.91 0.97 0.94 0.87 0.82 0.74 0.62 0.62 0.72 0.53 0.24 0.24 0.36 0.22 0.10 0.04 0.02 0.01 0.01 0.01 0.01 0.01 0.01 0.00 0.00 0.00
0.06 0.07 0.12 0.20 0.35 0.52 0.71 0.96 1.15 1.28 1.26 1.20 1.12 1.12 1.11 1.10 1.13 1.11 1.11 1.05 0.97 0.86 0.85 0.89 0.91 1.13 0.93 0.57 0.40 0.44 0.40 0.31 0.15 0.04 0.02 0.02 0.02 0.01 0.01 0.00 0.00 0.00 0.00
0.07 0.09 0.16 0.31 0.51 0.76 1.07 1.33 1.51 1.69 1.72 1.49 1.37 1.26 1.16 1.07 1.10 1.14 1.05 0.98 0.90 0.82 0.92 0.98 0.97 1.19 1.23 0.90 0.65 0.46 0.34 0.30 0.26 0.18 0.07 0.04 0.04 0.04 0.01 0.01 0.00 0.00 0.00
0.15 0.22 0.35 0.57 0.87 1.14 1.35 1.49 1.66 1.74 1.71 1.60 1.43 1.31 1.16 1.09 0.97 0.89 0.86 0.89 0.89 0.89 0.95 1.04 1.08 1.26 1.27 1.15 0.89 0.75 0.64 0.49 0.31 0.28 0.26 0.11 0.05 0.04 0.02 0.01 0.02 0.01 0.00
0.27 0.40 0.55 0.74 1.00 1.15 1.24 1.35 1.52 1.63 1.65 1.62 1.52 1.44 1.34 1.23 1.01 0.81 0.73 0.76 0.89 1.01 1.04 1.06 1.12 1.26 1.29 1.27 1.07 0.87 0.78 0.69 0.58 0.51 0.38 0.26 0.12 0.03 0.03 0.03 0.04 0.02 0.01

GEFSSE_prec_meanprecacc_048.txt.gz
Total_Precipitation_Accumulation
0.00 0.02 0.07 0.09 0.10 0.10 0.18 0.26 0.23 0.17 0.20 0.18 0.10 0.06 0.07 0.09 0.12 0.10 0.07 0.06 0.05 0.06 0.08 0.11 0.16 0.21 0.20 0.18 0.21 0.28 0.32 0.30 0.27 0.26 0.32 0.37 0.36 0.34 0.34 0.35 0.35 0.46 0.27
0.00 0.01 0.06 0.10 0.11 0.11 0.14 0.19 0.25 0.22 0.29 0.23 0.14 0.09 0.08 0.09 0.09 0.06 0.04 0.03 0.04 0.05 0.07 0.09 0.15 0.18 0.20 0.25 0.26 0.30 0.28 0.23 0.19 0.22 0.35 0.43 0.39 0.33 0.29 0.28 0.37 0.45 0.31
0.00 0.00 0.03 0.10 0.10 0.09 0.14 0.18 0.25 0.28 0.37 0.32 0.24 0.15 0.11 0.09 0.10 0.07 0.05 0.06 0.07 0.05 0.05 0.08 0.19 0.21 0.21 0.28 0.30 0.28 0.24 0.16 0.14 0.19 0.36 0.65 0.50 0.33 0.29 0.36 0.49 0.33 0.29
0.00 0.00 0.03 0.11 0.09 0.09 0.14 0.22 0.33 0.34 0.45 0.45 0.26 0.13 0.07 0.09 0.16 0.14 0.12 0.22 0.11 0.03 0.03 0.07 0.16 0.21 0.20 0.24 0.29 0.25 0.24 0.23 0.24 0.23 0.46 0.67 0.69 0.46 0.43 0.50 0.52 0.40 0.38
0.00 0.01 0.08 0.16 0.12 0.11 0.13 0.25 0.35 0.39 0.47 0.41 0.20 0.06 0.04 0.11 0.19 0.22 0.24 0.27 0.07 0.02 0.02 0.04 0.12 0.17 0.17 0.16 0.17 0.15 0.16 0.23 0.34 0.41 0.60 0.70 0.71 0.54 0.51 0.53 0.49 0.39 0.43
0.00 0.02 0.07 0.15 0.15 0.13 0.14 0.26 0.35 0.42 0.47 0.40 0.17 0.06 0.06 0.14 0.17 0.17 0.25 0.14 0.05 0.03 0.01 0.02 0.07 0.11 0.11 0.12 0.14 0.12 0.16 0.20 0.26 0.41 0.61 0.72 0.63 0.46 0.47 0.50 0.50 0.50 0.42
0.01 0.02 0.05 0.10 0.13 0.14 0.16 0.31 0.41 0.43 0.44 0.35 0.16 0.09 0.07 0.09 0.10 0.14 0.19 0.06 0.03 0.01 0.01 0.02 0.05 0.06 0.08 0.09 0.10 0.10 0.11 0.10 0.15 0.25 0.41 0.65 0.50 0.36 0.37 0.44 0.49 0.52 0.43
0.00 0.01 0.03 0.06 0.11 0.16 0.21 0.33 0.39 0.40 0.38 0.32 0.17 0.09 0.08 0.08 0.08 0.14 0.14 0.04 0.02 0.00 0.00 0.01 0.04 0.07 0.08 0.08 0.08 0.11 0.11 0.08 0.06 0.11 0.23 0.40 0.40 0.36 0.32 0.42 0.52 0.49 0.43
0.01 0.01 0.02 0.05 0.08 0.17 0.28 0.34 0.38 0.39 0.38 0.32 0.19 0.12 0.08 0.08 0.07 0.10 0.07 0.02 0.00 0.00 0.00 0.00 0.03 0.04 0.04 0.06 0.08 0.10 0.09 0.07 0.04 0.07 0.12 0.23 0.27 0.26 0.28 0.40 0.53 0.54 0.48
0.01 0.00 0.01 0.03 0.07 0.11 0.15 0.23 0.32 0.36 0.36 0.34 0.22 0.14 0.10 0.08 0.05 0.05 0.02 0.00 0.00 0.00 0.00 0.01 0.02 0.01 0.02 0.05 0.04 0.06 0.06 0.04 0.06 0.09 0.13 0.14 0.15 0.16 0.18 0.22 0.29 0.32 0.34
0.01 0.00 0.01 0.01 0.02 0.04 0.07 0.10 0.20 0.29 0.33 0.28 0.21 0.13 0.11 0.12 0.06 0.04 0.02 0.00 0.00 0.00 0.01 0.02 0.03 0.02 0.01 0.02 0.02 0.04 0.03 0.04 0.07 0.09 0.12 0.11 0.09 0.10 0.11 0.13 0.16 0.18 0.21
0.02 0.01 0.01 0.01 0.01 0.02 0.04 0.15 0.27 0.23 0.18 0.15 0.20 0.12 0.11 0.11 0.10 0.05 0.03 0.01 0.00 0.01 0.01 0.02 0.03 0.01 0.00 0.00 0.01 0.02 0.02 0.03 0.06 0.05 0.07 0.11 0.09 0.06 0.06 0.09 0.11 0.12 0.12
0.05 0.03 0.03 0.02 0.02 0.02 0.08 0.19 0.30 0.38 0.28 0.23 0.17 0.09 0.12 0.08 0.03 0.03 0.04 0.03 0.02 0.02 0.00 0.00 0.00 0.00 0.00 0.00 0.00 0.01 0.01 0.02 0.04 0.07 0.08 0.12 0.14 0.13 0.07 0.06 0.08 0.10 0.08
0.11 0.09 0.06 0.04 0.03 0.02 0.02 0.05 0.12 0.16 0.21 0.19 0.10 0.05 0.05 0.04 0.02 0.02 0.03 0.03 0.02 0.00 0.00 0.00 0.00 0.00 0.00 0.00 0.01 0.03 0.02 0.02 0.07 0.12 0.15 0.16 0.22 0.19 0.13 0.07 0.07 0.08 0.08
0.21 0.20 0.14 0.09 0.06 0.04 0.02 0.02 0.02 0.05 0.11 0.14 0.13 0.05 0.03 0.02 0.02 0.02 0.02 0.02 0.01 0.00 0.00 0.00 0.00 0.00 0.00 0.01 0.03 0.03 0.03 0.02 0.06 0.13 0.25 0.33 0.44 0.42 0.35 0.21 0.11 0.10 0.12
0.24 0.31 0.30 0.22 0.16 0.12 0.07 0.03 0.02 0.03 0.06 0.12 0.10 0.03 0.03 0.03 0.02 0.02 0.03 0.03 0.02 0.01 0.00 0.00 0.00 0.00 0.00 0.00 0.01 0.01 0.02 0.02 0.02 0.06 0.18 0.39 0.53 0.48 0.50 0.45 0.30 0.21 0.17
0.27 0.30 0.34 0.34 0.32 0.30 0.23 0.17 0.13 0.11 0.08 0.11 0.12 0.05 0.05 0.04 0.03 0.03 0.04 0.03 0.02 0.01 0.00 0.00 0.00 0.00 0.00 0.00 0.00 0.00 0.00 0.01 0.01 0.01 0.02 0.09 0.21 0.30 0.38 0.39 0.38 0.31 0.24
0.36 0.38 0.42 0.41 0.42 0.42 0.41 0.38 0.32 0.31 0.25 0.21 0.21 0.12 0.10 0.08 0.08 0.07 0.05 0.05 0.04 0.01 0.01 0.01 0.01 0.01 0.00 0.01 0.01 0.01 0.00 0.00 0.01 0.00 0.00 0.01 0.04 0.10 0.21 0.21 0.24 0.26 0.27
0.36 0.37 0.39 0.47 0.50 0.48 0.49 0.53 0.53 0.50 0.44 0.39 0.38 0.32 0.26 0.24 0.25 0.23 0.19 0.15 0.08 0.05 0.05 0.04 0.04 0.02 0.02 0.03 0.02 0.02 0.01 0.00 0.01 0.00 0.01 0.01 0.02 0.04 0.08 0.07 0.08 0.09 0.11
0.30 0.32 0.36 0.43 0.58 0.70 0.74 0.74 0.81 0.73 0.68 0.70 0.75 0.66 0.50 0.51 0.62 0.60 0.58 0.45 0.31 0.23 0.19 0.13 0.13 0.12 0.08 0.06 0.02 0.02 0.01 0.01 0.01 0.00 0.01 0.01 0.01 0.01 0.01 0.01 0.03 0.03 0.02
0.20 0.26 0.31 0.36 0.50 0.63 0.69 0.78 0.93 1.02 1.10 1.18 1.28 1.16 0.95 0.85 0.96 1.03 0.92 0.82 0.69 0.51 0.45 0.39 0.37 0.41 0.25 0.09 0.09 0.10 0.04 0.02 0.01 0.01 0.01 0.01 0.01 0.01 0.00 0.00 0.01 0.01 0.01
0.10 0.14 0.21 0.27 0.38 0.49 0.61 0.81 1.02 1.24 1.25 1.30 1.41 1.42 1.28 1.15 1.19 1.20 1.25 1.18 1.04 0.92 0.82 0.68 0.66 0.75 0.55 0.27 0.26 0.37 0.23 0.11 0.05 0.03 0.02 0.01 0.02 0.02 0.02 0.01 0.00 0.00 0.00
0.06 0.08 0.13 0.23 0.38 0.57 0.77 1.05 1.30 1.51 1.55 1.56 1.46 1.49 1.52 1.54 1.55 1.52 1.51 1.43 1.27 1.07 1.00 1.00 0.99 1.18 0.97 0.61 0.43 0.46 0.41 0.32 0.16 0.05 0.02 0.02 0.02 0.02 0.01 0.01 0.01 0.00 0.00
0.07 0.10 0.17 0.31 0.52 0.77 1.10 1.38 1.59 1.81 1.89 1.71 1.66 1.65 1.60 1.54 1.56 1.59 1.52 1.44 1.32 1.18 1.19 1.17 1.12 1.30 1.32 0.98 0.72 0.53 0.38 0.32 0.27 0.18 0.07 0.04 0.04 0.04 0.01 0.01 0.01 0.01 0.00
0.16 0.23 0.36 0.58 0.87 1.15 1.35 1.50 1.69 1.81 1.81 1.77 1.72 1.66 1.54 1.48 1.42 1.38 1.32 1.33 1.33 1.30 1.30 1.33 1.31 1.45 1.43 1.29 1.01 0.87 0.75 0.57 0.37 0.31 0.27 0.12 0.06 0.04 0.02 0.02 0.02 0.01 0.00
0.29 0.41 0.57 0.75 1.00 1.15 1.25 1.37 1.54 1.66 1.70 1.72 1.68 1.65 1.60 1.52 1.39 1.28 1.23 1.21 1.27 1.33 1.33 1.33 1.35 1.48 1.49 1.44 1.21 1.00 0.91 0.80 0.69 0.61 0.44 0.30 0.15 0.05 0.03 0.03 0.04 0.02 0.01

GEFSSE_prec_meanprecacc_054.txt.gz
Total_Precipitation_Accumulation
0.00 0.02 0.08 0.11 0.14 0.14 0.22 0.29 0.27 0.21 0.25 0.24 0.16 0.12 0.12 0.14 0.16 0.14 0.10 0.08 0.07 0.08 0.10 0.13 0.17 0.22 0.21 0.19 0.22 0.29 0.32 0.30 0.27 0.27 0.32 0.37 0.36 0.35 0.35 0.36 0.36 0.48 0.30
0.00 0.01 0.06 0.11 0.13 0.13 0.16 0.21 0.27 0.25 0.31 0.26 0.18 0.13 0.12 0.13 0.13 0.09 0.07 0.06 0.06 0.07 0.10 0.12 0.17 0.18 0.21 0.26 0.27 0.31 0.29 0.24 0.19 0.22 0.36 0.43 0.39 0.34 0.29 0.29 0.38 0.47 0.32
0.00 0.00 0.04 0.11 0.12 0.11 0.15 0.19 0.26 0.29 0.38 0.33 0.26 0.18 0.14 0.12 0.13 0.10 0.08 0.09 0.09 0.08 0.08 0.11 0.21 0.22 0.21 0.30 0.31 0.30 0.26 0.18 0.16 0.19 0.37 0.67 0.51 0.35 0.32 0.39 0.51 0.36 0.33
0.00 0.00 0.04 0.11 0.10 0.11 0.14 0.23 0.33 0.35 0.46 0.45 0.27 0.14 0.08 0.11 0.18 0.16 0.15 0.25 0.13 0.05 0.05 0.09 0.18 0.23 0.22 0.26 0.30 0.27 0.27 0.26 0.26 0.23 0.47 0.69 0.71 0.48 0.48 0.55 0.56 0.43 0.42
0.00 0.01 0.08 0.16 0.12 0.12 0.14 0.26 0.35 0.40 0.47 0.42 0.20 0.07 0.04 0.12 0.21 0.24 0.27 0.29 0.10 0.04 0.04 0.06 0.14 0.20 0.19 0.18 0.19 0.19 0.21 0.26 0.36 0.42 0.61 0.71 0.74 0.56 0.54 0.58 0.54 0.43 0.46
0.00 0.02 0.07 0.16 0.15 0.14 0.14 0.27 0.36 0.43 0.48 0.40 0.18 0.07 0.07 0.14 0.18 0.18 0.27 0.16 0.07 0.04 0.03 0.04 0.09 0.12 0.12 0.14 0.16 0.16 0.21 0.24 0.27 0.41 0.61 0.73 0.65 0.49 0.49 0.53 0.54 0.57 0.48
0.01 0.02 0.05 0.10 0.13 0.15 0.16 0.32 0.42 0.43 0.45 0.36 0.17 0.09 0.08 0.09 0.11 0.14 0.20 0.07 0.04 0.02 0.02 0.03 0.07 0.08 0.10 0.12 0.13 0.13 0.15 0.14 0.17 0.26 0.41 0.66 0.53 0.38 0.39 0.47 0.52 0.56 0.49
0.00 0.01 0.03 0.06 0.12 0.16 0.22 0.34 0.40 0.41 0.39 0.33 0.18 0.10 0.09 0.09 0.08 0.14 0.15 0.05 0.02 0.01 0.01 0.02 0.06 0.09 0.10 0.10 0.10 0.13 0.14 0.12 0.09 0.12 0.23 0.41 0.42 0.39 0.35 0.45 0.55 0.53 0.47
0.01 0.01 0.03 0.05 0.08 0.18 0.29 0.36 0.40 0.40 0.39 0.34 0.21 0.12 0.08 0.08 0.07 0.10 0.08 0.02 0.01 0.00 0.00 0.01 0.04 0.05 0.05 0.07 0.10 0.12 0.13 0.10 0.09 0.09 0.13 0.24 0.29 0.28 0.30 0.42 0.56 0.58 0.51
0.01 0.00 0.01 0.04 0.08 0.12 0.16 0.25 0.35 0.39 0.38 0.36 0.25 0.16 0.11 0.08 0.05 0.05 0.02 0.00 0.00 0.00 0.00 0.01 0.02 0.02 0.02 0.05 0.06 0.08 0.09 0.08 0.11 0.12 0.13 0.14 0.17 0.18 0.21 0.25 0.32 0.34 0.37
0.02 0.01 0.01 0.01 0.02 0.06 0.09 0.12 0.25 0.35 0.38 0.32 0.25 0.16 0.12 0.12 0.06 0.04 0.02 0.01 0.00 0.00 0.01 0.02 0.03 0.02 0.01 0.02 0.04 0.06 0.06 0.09 0.13 0.12 0.14 0.12 0.10 0.11 0.13 0.14 0.19 0.19 0.22
0.05 0.02 0.02 0.02 0.01 0.03 0.06 0.18 0.32 0.29 0.24 0.20 0.25 0.16 0.14 0.13 0.10 0.05 0.04 0.01 0.01 0.01 0.01 0.02 0.03 0.01 0.00 0.00 0.02 0.03 0.03 0.05 0.09 0.08 0.08 0.12 0.10 0.07 0.08 0.10 0.13 0.15 0.14
0.13 0.09 0.06 0.04 0.03 0.03 0.10 0.22 0.35 0.46 0.35 0.30 0.22 0.14 0.16 0.09 0.04 0.03 0.04 0.04 0.02 0.02 0.01 0.00 0.00 0.00 0.00 0.00 0.00 0.01 0.02 0.02 0.05 0.07 0.09 0.12 0.14 0.14 0.09 0.08 0.12 0.13 0.11
0.24 0.21 0.15 0.08 0.07 0.04 0.05 0.08 0.16 0.21 0.27 0.25 0.16 0.11 0.11 0.07 0.04 0.02 0.03 0.03 0.02 0.01 0.00 0.00 0.00 0.00 0.00 0.00 0.01 0.03 0.02 0.02 0.07 0.12 0.16 0.17 0.22 0.19 0.15 0.09 0.10 0.13 0.11
0.40 0.41 0.33 0.23 0.19 0.15 0.12 0.10 0.08 0.10 0.17 0.22 0.21 0.13 0.10 0.08 0.06 0.04 0.03 0.02 0.01 0.00 0.00 0.00 0.00 0.00 0.00 0.01 0.03 0.03 0.03 0.02 0.06 0.13 0.25 0.33 0.44 0.43 0.36 0.23 0.13 0.12 0.15
0.44 0.54 0.51 0.41 0.35 0.33 0.26 0.18 0.12 0.12 0.15 0.22 0.20 0.12 0.12 0.10 0.08 0.06 0.05 0.04 0.02 0.01 0.00 0.00 0.00 0.00 0.00 0.00 0.01 0.01 0.02 0.02 0.02 0.06 0.18 0.39 0.53 0.48 0.50 0.47 0.31 0.23 0.19
0.43 0.47 0.53 0.49 0.49 0.49 0.46 0.42 0.31 0.28 0.26 0.29 0.27 0.18 0.16 0.13 0.10 0.10 0.09 0.06 0.04 0.02 0.00 0.00 0.00 0.00 0.00 0.00 0.00 0.00 0.00 0.01 0.01 0.01 0.02 0.09 0.21 0.30 0.38 0.40 0.39 0.32 0.25
0.46 0.49 0.53 0.54 0.58 0.62 0.64 0.63 0.56 0.57 0.51 0.46 0.48 0.35 0.25 0.20 0.18 0.16 0.14 0.13 0.09 0.04 0.02 0.02 0.02 0.01 0.00 0.01 0.01 0.01 0.00 0.00 0.01 0.00 0.00 0.01 0.04 0.10 0.21 0.21 0.24 0.26 0.28
0.42 0.43 0.47 0.55 0.59 0.61 0.67 0.76 0.83 0.85 0.80 0.72 0.72 0.63 0.49 0.40 0.39 0.39 0.32 0.27 0.17 0.13 0.09 0.06 0.04 0.02 0.02 0.03 0.03 0.02 0.01 0.01 0.01 0.00 0.01 0.01 0.02 0.04 0.08 0.07 0.08 0.09 0.12
0.33 0.35 0.40 0.47 0.63 0.77 0.84 0.88 0.99 0.98 1.01 1.06 1.10 0.96 0.78 0.75 0.81 0.81 0.76 0.61 0.45 0.36 0.28 0.18 0.15 0.13 0.08 0.06 0.02 0.02 0.02 0.01 0.01 0.00 0.01 0.01 0.01 0.01 0.01 0.01 0.03 0.03 0.02
0.21 0.27 0.32 0.37 0.52 0.66 0.74 0.86 1.04 1.18 1.31 1.43 1.55 1.42 1.23 1.13 1.23 1.28 1.15 1.04 0.89 0.67 0.57 0.49 0.43 0.45 0.28 0.10 0.11 0.12 0.05 0.02 0.01 0.01 0.01 0.01 0.01 0.01 0.00 0.00 0.01 0.01 0.01
0.11 0.15 0.22 0.28 0.38 0.50 0.63 0.84 1.07 1.33 1.39 1.45 1.60 1.63 1.52 1.40 1.48 1.47 1.52 1.47 1.33 1.16 1.01 0.82 0.75 0.82 0.61 0.30 0.31 0.43 0.28 0.14 0.06 0.03 0.02 0.01 0.02 0.02 0.02 0.01 0.00 0.00 0.00
0.07 0.08 0.13 0.23 0.38 0.58 0.79 1.07 1.34 1.57 1.62 1.64 1.57 1.63 1.68 1.72 1.74 1.73 1.77 1.74 1.60 1.36 1.24 1.20 1.13 1.30 1.06 0.67 0.47 0.53 0.48 0.37 0.21 0.06 0.02 0.03 0.02 0.02 0.01 0.01 0.01 0.00 0.00
0.09 0.12 0.18 0.32 0.52 0.78 1.11 1.39 1.61 1.84 1.92 1.75 1.72 1.74 1.71 1.66 1.70 1.77 1.75 1.70 1.61 1.46 1.44 1.40 1.28 1.44 1.45 1.09 0.80 0.59 0.43 0.38 0.35 0.24 0.09 0.04 0.05 0.04 0.02 0.01 0.01 0.01 0.00
0.20 0.25 0.38 0.60 0.89 1.16 1.36 1.52 1.71 1.83 1.82 1.79 1.75 1.72 1.61 1.58 1.54 1.54 1.50 1.52 1.52 1.50 1.50 1.55 1.49 1.60 1.55 1.42 1.12 0.96 0.83 0.64 0.43 0.39 0.34 0.16 0.07 0.05 0.03 0.02 0.03 0.02 0.01
0.33 0.44 0.60 0.77 1.03 1.17 1.27 1.39 1.56 1.68 1.72 1.74 1.71 1.69 1.66 1.59 1.47 1.37 1.35 1.36 1.44 1.52 1.51 1.51 1.51 1.61 1.61 1.57 1.35 1.11 1.02 0.91 0.78 0.70 0.53 0.37 0.21 0.08 0.05 0.04 0.05 0.04 0.03

GEFSSE_prec_meanprecacc_060.txt.gz
Total_Precipitation_Accumulation
0.00 0.02 0.08 0.11 0.14 0.15 0.23 0.31 0.30 0.24 0.28 0.28 0.19 0.14 0.15 0.17 0.18 0.16 0.12 0.09 0.08 0.08 0.11 0.14 0.18 0.24 0.22 0.20 0.23 0.31 0.34 0.31 0.29 0.28 0.34 0.39 0.37 0.36 0.37 0.40 0.49 0.62 0.35
0.00 0.01 0.06 0.11 0.14 0.13 0.17 0.22 0.29 0.27 0.34 0.30 0.22 0.16 0.16 0.16 0.16 0.11 0.09 0.08 0.07 0.08 0.10 0.14 0.19 0.21 0.22 0.27 0.29 0.34 0.32 0.25 0.20 0.24 0.40 0.49 0.42 0.35 0.31 0.34 0.53 0.60 0.37
0.00 0.00 0.04 0.11 0.12 0.12 0.16 0.20 0.27 0.30 0.40 0.35 0.29 0.21 0.16 0.15 0.15 0.12 0.10 0.11 0.11 0.09 0.09 0.12 0.23 0.24 0.24 0.33 0.34 0.33 0.30 0.20 0.17 0.22 0.47 0.84 0.58 0.35 0.33 0.41 0.56 0.40 0.36
0.00 0.00 0.04 0.11 0.11 0.11 0.15 0.23 0.34 0.35 0.47 0.46 0.28 0.15 0.09 0.13 0.20 0.18 0.17 0.26 0.14 0.06 0.06 0.11 0.20 0.25 0.24 0.29 0.33 0.29 0.29 0.28 0.28 0.28 0.58 0.83 0.80 0.50 0.50 0.58 0.59 0.46 0.46
0.00 0.02 0.08 0.16 0.13 0.13 0.15 0.26 0.35 0.40 0.48 0.42 0.21 0.07 0.05 0.13 0.22 0.25 0.28 0.30 0.10 0.05 0.04 0.07 0.15 0.21 0.21 0.21 0.22 0.21 0.22 0.27 0.38 0.47 0.69 0.82 0.81 0.58 0.56 0.62 0.58 0.47 0.52
0.00 0.03 0.08 0.16 0.16 0.15 0.15 0.27 0.36 0.43 0.48 0.41 0.18 0.07 0.07 0.15 0.18 0.19 0.27 0.16 0.08 0.05 0.03 0.05 0.10 0.14 0.14 0.16 0.19 0.18 0.23 0.26 0.32 0.47 0.67 0.83 0.73 0.51 0.51 0.56 0.58 0.61 0.56
0.01 0.02 0.05 0.11 0.14 0.15 0.17 0.32 0.42 0.44 0.46 0.37 0.17 0.10 0.08 0.10 0.11 0.15 0.20 0.08 0.04 0.03 0.02 0.03 0.07 0.09 0.10 0.13 0.15 0.15 0.17 0.16 0.22 0.32 0.48 0.76 0.59 0.40 0.40 0.49 0.54 0.60 0.55
0.01 0.01 0.03 0.07 0.12 0.17 0.23 0.35 0.41 0.41 0.39 0.34 0.18 0.10 0.09 0.09 0.09 0.15 0.16 0.05 0.02 0.01 0.01 0.02 0.06 0.09 0.10 0.11 0.12 0.14 0.15 0.13 0.14 0.17 0.32 0.52 0.47 0.40 0.35 0.46 0.57 0.55 0.51
0.01 0.02 0.03 0.06 0.09 0.19 0.31 0.38 0.42 0.42 0.41 0.35 0.22 0.13 0.09 0.08 0.08 0.10 0.08 0.02 0.01 0.01 0.01 0.01 0.04 0.05 0.05 0.08 0.10 0.13 0.13 0.12 0.13 0.14 0.21 0.35 0.33 0.30 0.31 0.43 0.57 0.59 0.54
0.02 0.02 0.02 0.05 0.10 0.17 0.22 0.31 0.41 0.44 0.42 0.39 0.28 0.18 0.13 0.09 0.05 0.05 0.02 0.01 0.01 0.00 0.00 0.01 0.02 0.02 0.02 0.05 0.06 0.08 0.09 0.09 0.14 0.15 0.20 0.20 0.18 0.19 0.21 0.26 0.33 0.35 0.39
0.04 0.03 0.04 0.05 0.08 0.12 0.18 0.25 0.38 0.44 0.45 0.36 0.28 0.19 0.15 0.14 0.07 0.06 0.03 0.01 0.01 0.01 0.01 0.02 0.03 0.02 0.01 0.02 0.04 0.06 0.06 0.11 0.16 0.15 0.18 0.14 0.11 0.12 0.14 0.15 0.20 0.21 0.24
0.11 0.07 0.06 0.08 0.08 0.10 0.13 0.33 0.53 0.50 0.43 0.28 0.33 0.23 0.18 0.17 0.16 0.10 0.07 0.02 0.01 0.01 0.01 0.02 0.03 0.01 0.00 0.00 0.02 0.03 0.03 0.06 0.10 0.10 0.10 0.13 0.10 0.08 0.09 0.11 0.14 0.15 0.15
0.27 0.19 0.14 0.14 0.13 0.13 0.22 0.36 0.55 0.69 0.61 0.54 0.44 0.34 0.28 0.19 0.12 0.07 0.07 0.06 0.03 0.02 0.01 0.00 0.00 0.00 0.00 0.00 0.01 0.02 0.02 0.03 0.06 0.09 0.10 0.13 0.14 0.14 0.09 0.09 0.13 0.15 0.12
0.36 0.35 0.25 0.19 0.21 0.19 0.18 0.22 0.35 0.39 0.45 0.44 0.33 0.27 0.29 0.23 0.14 0.07 0.07 0.07 0.04 0.02 0.01 0.00 0.00 0.00 0.00 0.01 0.01 0.03 0.02 0.02 0.08 0.14 0.17 0.17 0.22 0.20 0.15 0.10 0.11 0.15 0.13
0.49 0.51 0.45 0.35 0.30 0.26 0.23 0.25 0.22 0.23 0.31 0.36 0.38 0.26 0.25 0.22 0.16 0.10 0.06 0.06 0.03 0.02 0.02 0.01 0.00 0.00 0.00 0.01 0.03 0.04 0.03 0.02 0.06 0.13 0.25 0.33 0.44 0.43 0.37 0.24 0.14 0.14 0.17
0.49 0.60 0.58 0.48 0.42 0.41 0.35 0.31 0.25 0.25 0.29 0.35 0.36 0.26 0.26 0.25 0.20 0.16 0.09 0.07 0.04 0.02 0.02 0.02 0.01 0.00 0.00 0.00 0.01 0.02 0.02 0.02 0.02 0.06 0.18 0.39 0.53 0.48 0.51 0.48 0.32 0.23 0.20
0.45 0.50 0.56 0.53 0.54 0.57 0.55 0.53 0.42 0.42 0.43 0.48 0.47 0.36 0.35 0.28 0.23 0.21 0.16 0.11 0.07 0.03 0.01 0.01 0.01 0.01 0.00 0.00 0.00 0.00 0.00 0.01 0.01 0.01 0.03 0.10 0.21 0.30 0.38 0.40 0.39 0.33 0.25
0.46 0.50 0.54 0.56 0.62 0.67 0.71 0.71 0.64 0.67 0.65 0.62 0.65 0.52 0.41 0.34 0.29 0.32 0.27 0.21 0.14 0.09 0.04 0.03 0.03 0.03 0.01 0.01 0.02 0.01 0.00 0.00 0.01 0.01 0.01 0.01 0.04 0.10 0.21 0.21 0.24 0.26 0.28
0.42 0.44 0.48 0.56 0.60 0.63 0.71 0.81 0.91 0.94 0.92 0.86 0.86 0.75 0.61 0.55 0.52 0.57 0.49 0.40 0.28 0.23 0.14 0.09 0.06 0.04 0.03 0.04 0.03 0.02 0.01 0.01 0.01 0.00 0.01 0.01 0.02 0.04 0.08 0.07 0.08 0.09 0.12
0.33 0.36 0.41 0.48 0.63 0.78 0.86 0.90 1.03 1.06 1.12 1.19 1.22 1.06 0.89 0.87 0.96 1.01 0.96 0.79 0.63 0.52 0.41 0.25 0.19 0.16 0.10 0.07 0.03 0.02 0.02 0.01 0.01 0.00 0.01 0.01 0.01 0.01 0.02 0.01 0.03 0.03 0.02
0.21 0.27 0.32 0.38 0.53 0.66 0.75 0.87 1.06 1.22 1.37 1.50 1.62 1.50 1.32 1.24 1.38 1.43 1.30 1.22 1.07 0.83 0.71 0.60 0.53 0.53 0.34 0.13 0.15 0.15 0.07 0.03 0.02 0.01 0.01 0.01 0.01 0.01 0.01 0.00 0.01 0.01 0.01
0.11 0.15 0.22 0.28 0.39 0.51 0.64 0.86 1.09 1.37 1.43 1.50 1.63 1.69 1.61 1.51 1.61 1.60 1.65 1.61 1.52 1.36 1.18 0.97 0.90 0.96 0.71 0.35 0.37 0.53 0.36 0.20 0.08 0.04 0.03 0.02 0.02 0.02 0.02 0.01 0.01 0.00 0.00
0.07 0.09 0.15 0.25 0.41 0.61 0.81 1.10 1.38 1.61 1.67 1.69 1.63 1.71 1.79 1.83 1.86 1.85 1.89 1.88 1.78 1.54 1.41 1.37 1.31 1.50 1.23 0.78 0.55 0.65 0.59 0.48 0.30 0.09 0.04 0.04 0.03 0.02 0.02 0.02 0.02 0.01 0.01
0.10 0.14 0.22 0.36 0.56 0.82 1.14 1.44 1.66 1.89 1.98 1.81 1.79 1.83 1.82 1.77 1.80 1.88 1.88 1.83 1.76 1.63 1.61 1.57 1.45 1.62 1.64 1.24 0.91 0.66 0.50 0.46 0.46 0.34 0.16 0.08 0.08 0.06 0.03 0.02 0.02 0.02 0.02
0.23 0.29 0.44 0.66 0.95 1.21 1.41 1.58 1.78 1.90 1.90 1.86 1.82 1.81 1.73 1.71 1.66 1.67 1.65 1.68 1.68 1.67 1.68 1.73 1.68 1.79 1.72 1.55 1.25 1.06 0.92 0.72 0.52 0.50 0.45 0.26 0.14 0.09 0.06 0.05 0.05 0.04 0.03
0.39 0.51 0.68 0.86 1.13 1.27 1.37 1.49 1.66 1.78 1.81 1.82 1.78 1.79 1.77 1.72 1.60 1.52 1.51 1.53 1.60 1.68 1.68 1.71 1.72 1.80 1.80 1.75 1.50 1.25 1.13 1.02 0.88 0.82 0.64 0.49 0.34 0.17 0.11 0.09 0.09 0.07 0.06